GFSNE_850_rhum_000.txt.gz
RH
39 49 52 52 56 58 59 57 58 71 67 59 51 39 37 42 48 71 70 64 62 60 74 36 22 42 56 68 67 73 75 70 78 74 70 83 89 71
42 46 53 52 57 50 49 46 52 58 61 57 57 58 56 64 66 64 63 67 72 77 72 45 93 78 50 52 58 62 77 84 79 75 78 66 72 73
45 47 51 52 54 49 49 50 54 57 65 68 67 63 61 60 61 60 64 64 66 62 69 91 80 42 31 28 39 60 72 94 90 91 84 78 88 76
45 48 50 48 54 53 54 56 62 63 66 78 71 70 67 69 73 70 64 65 64 65 62 69 77 56 58 38 68 60 69 88 89 89 82 81 90 92
50 53 55 57 57 58 61 64 66 68 78 79 81 82 80 77 76 74 75 65 67 68 73 70 75 88 79 88 77 77 78 83 89 88 81 82 79 95
57 63 64 65 64 68 69 69 75 82 77 82 90 88 83 74 74 74 73 77 82 79 80 93 90 91 82 78 78 74 81 92 86 83 86 84 86 87
67 66 67 72 78 78 80 82 85 78 88 95 92 84 73 77 79 82 77 78 75 75 92 91 86 90 78 53 42 43 68 80 96 100 94 79 71 69
70 69 67 68 68 80 85 92 88 96 94 98 98 87 81 80 80 80 91 96 96 79 88 89 68 85 84 82 83 89 84 86 84 88 83 81 69 59
70 68 67 66 82 88 79 78 92 97 89 89 93 82 85 88 88 97 99 99 97 91 93 84 89 92 82 79 93 70 90 91 96 96 90 72 60 58
69 69 69 83 89 77 81 94 97 87 83 77 81 94 96 94 93 95 94 90 90 90 96 98 91 88 80 95 98 99 98 99 93 82 77 75 72 75
72 73 88 89 80 81 96 98 93 83 71 88 91 90 89 95 98 97 93 100 96 96 91 97 92 96 98 76 67 80 97 93 88 88 82 77 75 70
80 88 86 80 86 98 90 86 96 78 98 88 87 91 98 96 100 96 95 98 99 98 92 98 88 95 95 93 99 98 97 98 100 98 96 86 80 99
94 90 79 93 96 80 76 87 90 91 92 88 91 92 92 91 93 93 96 98 97 99 85 98 97 96 97 98 89 86 91 99 100 99 99 100 100 100
90 89 96 91 80 78 85 88 86 88 86 92 93 96 96 92 92 91 92 92 99 99 96 97 96 99 99 96 96 85 96 99 100 99 100 100 100 100
88 96 88 80 80 84 86 86 88 88 94 94 98 98 96 91 91 91 92 93 97 93 95 96 96 96 99 97 98 95 97 98 99 100 100 100 100 100
96 96 77 78 80 87 85 84 86 92 96 95 96 93 92 93 96 94 96 94 96 93 95 95 95 96 97 96 97 97 96 98 99 99 99 99 99 100
95 81 76 80 88 87 86 88 86 93 96 97 97 94 93 97 94 95 97 96 96 96 95 97 96 95 96 96 96 96 96 98 99 98 98 98 99 99
87 82 86 92 94 93 94 92 89 99 97 96 95 96 97 96 98 95 96 96 97 97 95 95 96 96 96 96 96 96 97 98 98 98 98 96 98 99
88 90 96 96 95 96 95 94 97 97 96 96 96 96 97 96 96 96 96 97 96 96 94 94 75 96 97 97 97 96 96 97 98 98 96 93 95 97
92 95 97 96 96 95 94 96 97 97 98 97 96 96 96 96 96 96 97 95 90 78 59 78 58 92 95 96 95 96 97 97 97 97 97 97 97 97
93 94 94 96 94 96 98 97 97 97 97 96 95 96 97 97 95 83 64 70 70 45 59 81 68 64 72 75 91 96 96 97 97 96 96 96 96 97
94 96 94 95 98 99 97 97 97 96 95 96 98 100 100 100 96 59 42 61 93 92 80 98 84 64 67 72 84 80 56 47 53 61 57 60 72 74
96 96 95 98 98 96 96 97 96 96 98 99 100 100 98 94 61 43 83 96 96 96 96 96 96 74 78 86 88 82 73 73 69 67 74 66 60 60

GFSNE_850_rhum_003.txt.gz
RH
34 38 42 44 47 49 51 53 51 54 50 47 51 48 58 52 60 58 54 51 55 64 56 68 69 71 72 66 100 91 84 84 90 86 78 76 56 76
37 40 43 44 45 49 49 50 50 52 55 55 55 59 62 66 63 63 68 63 60 66 62 58 68 61 82 79 82 80 46 82 94 77 88 83 78 74
38 41 43 45 47 48 50 52 54 56 60 60 62 66 68 67 70 72 76 74 71 63 63 65 65 74 69 73 61 50 63 91 96 95 86 86 88 79
40 43 46 48 51 56 58 58 60 61 62 67 72 73 74 76 79 78 70 66 70 68 63 64 66 76 82 69 79 86 63 72 90 93 69 80 96 91
47 50 53 56 60 62 64 67 66 71 75 80 80 79 84 87 84 78 70 67 72 73 71 65 72 81 80 93 85 84 96 94 82 73 67 68 88 90
60 60 62 64 64 66 68 74 79 84 84 91 88 94 90 84 86 79 73 68 69 73 72 81 81 80 86 95 85 60 68 41 44 48 91 93 87 90
71 68 65 64 67 69 69 83 91 90 90 96 100 97 96 84 84 71 72 80 87 91 91 81 84 74 78 77 76 75 79 79 67 79 88 85 91 99
77 69 66 63 61 66 78 80 85 87 96 98 98 98 95 86 72 87 94 97 93 89 88 80 87 92 83 84 86 97 88 100 99 93 87 87 85 87
73 67 66 65 68 74 80 82 87 92 92 93 96 90 80 93 86 99 100 92 91 89 100 95 96 92 99 79 85 91 96 94 100 99 96 82 86 95
69 68 69 74 73 83 95 96 93 91 76 80 88 85 95 96 98 96 97 97 95 95 94 98 91 98 80 89 68 84 91 96 100 99 99 98 98 99
75 78 82 92 83 96 97 96 81 78 81 85 88 86 87 86 89 95 96 100 96 96 90 96 95 96 84 91 65 77 99 100 98 94 84 80 79 81
84 86 84 84 93 95 94 84 87 89 96 93 90 83 83 88 95 96 96 98 98 97 89 97 94 97 97 85 95 86 79 87 95 94 97 83 73 77
91 91 86 84 95 91 76 83 92 93 96 90 86 86 93 97 93 92 92 97 98 98 87 99 97 100 100 98 94 86 95 94 96 99 100 98 99 99
96 87 90 98 89 74 78 80 86 91 81 90 93 98 100 99 93 93 88 91 94 99 94 97 97 100 98 98 96 90 92 96 98 99 100 99 100 100
90 91 96 87 74 79 81 84 86 86 95 97 98 100 96 92 94 95 93 91 92 86 93 98 98 98 97 97 96 94 97 94 98 99 100 100 100 100
94 97 83 75 79 81 85 88 91 93 97 96 97 94 92 96 96 96 96 95 96 94 96 96 96 96 95 96 97 90 96 97 98 99 100 99 100 100
96 91 82 84 86 91 90 92 92 97 97 96 96 95 94 96 94 95 95 97 96 96 94 94 95 95 95 97 94 97 96 96 98 99 99 99 100 99
89 89 87 92 96 95 96 95 96 99 96 96 96 96 96 96 95 95 96 96 96 96 96 96 95 95 94 97 96 96 96 97 98 99 99 98 98 99
91 91 96 97 96 95 96 100 97 96 96 96 96 96 96 95 96 96 96 96 96 94 95 96 95 96 96 96 97 96 96 97 98 98 98 98 98 99
90 96 96 96 94 96 97 97 96 95 95 95 96 96 98 100 97 97 80 83 87 82 95 95 95 96 95 96 96 97 97 97 97 97 97 96 98 98
95 94 92 92 95 96 96 96 96 96 97 96 98 100 100 98 96 94 92 96 97 99 98 96 83 95 96 96 96 96 97 98 97 96 97 95 96 97
92 91 90 94 96 96 96 96 95 96 97 99 100 100 96 95 96 96 95 95 96 97 98 100 79 87 85 95 95 96 96 96 97 97 97 92 92 95
92 94 96 96 96 96 96 97 98 98 100 100 97 96 97 98 96 96 96 96 97 97 96 97 87 96 96 84 72 83 81 69 60 47 54 72 62 75

GFSNE_850_rhum_006.txt.gz
RH
26 30 32 32 37 44 47 47 54 58 59 54 52 57 62 61 61 70 64 68 71 71 70 73 70 74 75 70 68 69 72 76 75 81 98 86 96 96
31 30 29 36 43 45 48 51 53 58 62 57 65 65 61 68 72 68 69 76 77 76 71 68 69 70 71 74 78 72 85 85 80 74 80 88 88 98
30 28 35 43 47 51 53 57 62 65 70 68 65 64 76 75 66 78 85 85 82 75 73 71 67 68 69 68 67 73 88 88 87 90 87 87 94 99
30 31 40 50 59 60 63 65 67 68 67 72 81 80 76 77 85 80 87 91 80 72 67 68 66 68 71 75 73 70 82 93 100 100 99 100 99 98
35 39 50 63 64 68 67 67 65 72 83 91 87 84 94 91 85 89 95 87 76 67 67 76 79 81 80 86 81 83 90 96 99 96 98 96 85 91
51 52 62 74 72 68 69 72 76 86 94 95 98 96 92 82 96 91 85 74 73 84 76 92 87 83 86 86 82 83 85 82 88 92 99 86 92 80
59 67 78 77 74 72 71 76 85 86 97 97 98 98 97 96 94 87 83 83 76 85 98 72 86 82 68 78 95 90 93 95 96 98 94 97 94 84
69 82 79 72 70 74 78 79 81 98 96 97 100 88 80 80 98 97 94 100 96 90 88 93 96 88 94 92 97 98 99 92 92 93 95 100 97 61
83 85 78 78 79 74 76 94 96 95 96 84 82 80 96 94 95 98 98 100 99 97 97 100 94 98 87 70 89 99 95 96 89 94 100 95 100 99
80 79 82 79 84 90 97 98 91 87 87 84 82 97 97 98 98 96 97 95 95 99 99 99 93 90 84 86 95 98 97 96 98 94 94 97 97 99
86 92 93 89 92 90 95 96 96 92 70 81 98 98 87 85 90 95 96 100 98 98 94 96 94 99 94 94 87 97 98 97 98 100 99 99 81 82
96 98 95 89 84 93 96 96 97 80 93 97 87 68 68 78 99 96 96 97 98 99 91 100 98 99 98 85 92 88 92 91 99 96 100 95 87 80
99 91 95 85 95 95 83 87 85 92 96 81 70 79 94 100 98 96 97 98 97 99 82 100 97 95 100 99 88 100 91 84 94 96 98 100 100 99
95 96 82 97 94 82 83 83 86 90 76 88 100 100 100 98 94 92 93 94 98 98 96 97 97 100 97 97 98 78 77 93 98 97 98 100 100 100
93 91 98 98 86 84 86 88 89 86 98 98 100 98 97 94 93 94 92 92 90 94 96 98 98 98 94 90 94 83 96 90 97 98 99 100 100 100
90 97 93 90 83 87 91 90 90 98 98 96 97 96 95 97 97 97 96 94 96 95 94 95 96 96 90 87 98 93 96 96 96 98 100 100 100 100
97 92 88 80 92 98 96 97 96 98 96 97 97 96 96 96 95 95 96 96 98 97 94 93 96 97 90 95 96 96 96 97 98 98 99 99 99 99
94 88 92 100 100 100 100 98 96 99 97 97 96 97 97 96 95 94 95 97 95 95 95 96 94 92 93 94 97 96 97 97 98 98 98 99 99 98
91 95 100 100 100 100 98 99 98 96 96 96 96 96 96 94 95 94 95 96 94 95 96 96 96 96 94 96 96 97 97 98 98 98 98 98 98 99
95 100 100 98 98 97 96 97 96 96 95 96 96 94 95 96 95 96 97 97 96 95 96 96 95 95 96 96 96 98 98 97 97 98 98 98 99 99
98 98 94 99 96 96 97 96 96 96 99 97 95 96 96 97 96 96 97 96 97 95 97 96 94 96 95 95 97 97 96 98 97 96 98 94 98 98
96 94 98 96 96 97 96 96 97 96 95 95 95 96 98 99 97 96 96 97 96 97 97 95 91 90 96 95 96 96 96 97 97 97 96 94 96 98
97 100 97 94 96 96 97 97 97 94 95 97 98 97 97 96 97 97 98 97 97 98 97 96 94 76 87 95 95 96 96 96 97 95 86 95 97 97

GFSNE_850_rhum_009.txt.gz
RH
21 23 26 28 26 26 39 47 52 68 64 57 61 64 68 66 62 71 71 64 71 77 76 76 76 80 73 82 71 69 70 70 75 71 69 93 85 73
24 27 29 29 27 26 46 60 60 63 72 67 68 70 62 58 68 74 69 77 76 82 80 79 86 73 80 71 81 70 69 74 77 77 80 95 94 90
26 34 36 36 32 46 58 65 68 70 72 65 68 64 62 66 64 74 85 81 90 90 88 78 75 75 73 70 74 80 76 71 69 67 70 95 97 98
44 45 42 43 42 62 73 73 72 70 74 79 78 75 83 74 92 86 93 87 85 86 77 72 72 72 75 76 77 87 95 94 89 88 90 100 99 98
54 58 57 56 72 77 79 80 75 78 88 96 93 87 93 96 95 85 92 91 80 81 78 71 73 82 88 88 79 78 84 95 89 89 96 98 88 96
61 64 60 66 83 89 83 78 89 89 88 90 93 97 98 94 86 76 75 85 90 88 86 89 96 97 80 87 89 89 91 88 90 87 89 94 96 89
64 67 65 78 91 82 86 87 82 85 97 98 98 97 91 80 80 84 97 94 93 100 96 93 85 88 84 88 92 96 97 98 96 99 97 96 93 92
70 72 73 75 80 84 84 87 90 97 97 98 97 98 88 87 88 93 98 97 95 92 94 96 100 89 92 92 100 98 88 90 96 98 99 100 92 92
77 77 80 86 92 88 83 93 96 95 99 96 96 96 94 91 97 97 96 99 99 100 100 100 98 94 86 83 92 95 98 100 100 100 100 97 92 94
79 89 94 91 92 91 96 96 92 95 95 96 91 95 97 96 91 96 98 99 98 95 100 99 96 98 82 87 92 94 99 97 98 98 98 98 99 99
94 99 95 96 91 89 90 97 96 89 74 91 100 100 90 89 96 97 95 100 96 97 74 100 90 92 96 87 73 75 94 99 98 98 100 100 100 99
84 85 81 94 84 90 97 98 91 74 96 97 86 65 69 83 100 97 96 98 100 98 69 98 100 98 97 87 78 81 81 93 98 98 98 100 100 100
87 89 81 89 98 95 87 86 86 95 96 76 74 87 94 95 93 95 96 97 97 97 82 99 98 98 100 100 93 88 78 85 96 96 97 97 98 100
97 88 86 97 89 88 88 89 90 92 79 94 100 98 96 93 94 95 96 96 97 98 96 97 97 98 96 97 94 71 88 96 97 96 97 97 99 100
90 100 98 94 92 88 94 95 97 89 97 97 100 98 99 95 93 94 92 95 92 93 95 95 98 97 97 97 95 91 97 90 97 98 99 99 99 100
96 95 90 84 91 95 88 86 93 97 98 96 98 94 95 95 95 96 96 93 94 88 88 96 97 98 95 89 96 93 96 97 96 99 99 100 100 99
95 86 76 93 97 92 92 92 96 98 97 98 97 96 95 96 95 95 96 94 98 96 92 92 96 96 86 86 93 96 96 98 99 98 98 99 100 100
95 93 100 100 100 100 100 96 93 97 96 96 96 97 96 96 95 95 94 96 96 95 96 97 95 91 90 95 97 96 97 98 98 98 98 98 99 99
94 96 100 100 100 100 99 99 98 94 97 95 97 97 97 96 97 96 96 96 96 96 96 97 96 96 94 97 99 98 97 98 98 98 98 98 98 99
98 100 100 97 97 100 98 98 95 94 94 96 97 96 97 100 98 97 96 96 97 96 95 95 95 96 96 97 97 97 98 98 97 98 98 99 98 99
98 96 94 98 98 97 97 96 96 96 98 97 96 97 98 99 98 98 96 96 97 95 95 94 97 97 96 94 97 97 97 97 97 97 97 98 99 100
94 93 90 94 97 97 96 96 95 95 95 96 96 97 100 99 97 97 96 97 97 96 96 94 95 96 94 93 97 97 97 97 97 97 97 94 98 98
94 92 89 96 96 96 98 98 98 95 97 97 98 97 100 96 97 97 96 96 97 97 96 90 79 94 96 94 95 96 96 92 94 96 99 96 97 97

GFSNE_850_rhum_012.txt.gz
RH
16 18 22 26 32 33 33 34 60 77 71 61 70 74 72 68 59 67 72 74 84 85 81 80 79 80 82 84 94 89 88 82 80 84 80 70 80 80
20 26 31 37 40 34 30 42 62 74 85 74 74 76 72 74 72 77 83 88 84 86 83 78 76 76 85 86 72 78 89 77 69 69 73 69 70 82
26 36 43 50 48 42 50 69 78 82 88 76 73 67 75 73 71 83 97 96 90 82 79 78 79 82 83 82 80 76 74 80 82 87 84 84 76 75
37 49 57 60 56 50 63 81 85 81 88 96 79 79 84 66 94 98 86 76 79 75 77 79 81 73 75 77 81 82 83 97 96 90 85 90 92 94
51 60 63 65 61 60 83 84 92 98 96 91 86 76 74 95 97 87 80 72 59 66 82 85 86 86 87 95 96 95 85 83 86 91 87 88 88 86
60 61 66 70 73 89 88 91 95 82 85 91 95 96 94 95 83 82 74 75 73 92 97 95 88 91 91 89 89 91 93 92 91 94 92 85 84 92
60 67 75 77 83 90 91 94 94 96 97 98 94 95 97 83 85 84 91 86 97 88 78 86 93 94 89 90 87 94 98 98 96 95 95 96 97 95
72 78 77 80 86 91 91 90 91 96 93 99 97 98 93 94 92 96 98 96 90 88 90 97 100 94 89 84 95 100 97 95 99 93 95 98 97 98
80 78 82 83 91 84 89 94 93 93 97 93 89 94 99 94 98 99 99 100 100 97 100 100 80 100 84 85 89 100 100 98 98 99 100 100 99 99
75 77 89 87 84 90 93 95 96 83 69 80 89 97 98 94 94 99 97 99 98 88 98 98 79 89 79 77 72 73 86 100 100 100 99 98 99 100
75 90 96 89 89 92 97 97 99 84 66 95 100 94 92 95 98 96 94 100 98 96 73 100 83 93 95 77 70 73 83 100 97 97 100 100 98 97
93 90 86 93 94 98 95 96 90 74 98 98 78 67 68 77 100 99 96 98 100 99 74 98 96 98 97 87 83 86 84 75 100 99 99 99 100 99
93 93 86 98 95 89 88 92 93 96 93 79 74 79 85 89 91 95 97 98 97 98 80 98 98 96 100 98 94 83 80 75 96 96 96 96 97 96
97 82 93 97 92 93 96 98 98 98 83 89 96 97 94 92 94 95 95 96 96 97 95 96 97 99 98 99 100 74 74 86 96 96 97 97 98 97
91 99 100 97 93 82 96 100 100 92 95 97 99 94 96 95 94 94 90 92 93 94 95 96 97 96 98 96 96 83 95 84 97 98 98 98 99 99
95 95 85 76 76 88 78 80 90 100 98 98 96 93 94 94 94 96 96 93 95 87 88 97 96 98 95 92 92 93 97 97 97 98 98 98 99 99
95 87 72 76 78 80 81 87 93 98 99 96 95 96 94 95 94 95 96 95 96 96 92 90 94 97 95 95 95 97 96 98 98 98 97 98 99 100
96 86 87 92 96 95 96 97 93 96 96 95 94 96 96 98 96 94 95 96 96 96 96 95 94 92 93 94 98 98 98 97 98 98 98 98 98 100
89 94 97 97 97 96 98 100 97 93 96 93 95 96 97 94 97 95 96 96 93 98 96 96 96 96 94 97 97 98 98 98 97 98 98 98 98 98
93 98 93 93 96 98 97 97 94 92 93 93 96 97 96 97 96 96 96 96 97 96 94 95 96 98 96 97 96 97 98 97 97 98 98 98 98 98
93 86 86 95 98 98 98 97 97 96 98 97 96 96 96 97 95 96 97 96 98 96 94 93 98 98 97 94 96 99 99 99 98 97 94 96 99 99
88 83 89 97 98 98 96 96 94 94 95 96 96 98 98 98 97 96 97 96 97 97 96 88 97 97 92 93 98 99 99 99 98 99 97 96 98 98
84 87 96 96 97 97 97 97 96 94 97 97 97 98 99 98 96 96 97 96 97 94 95 82 94 90 92 95 97 97 100 95 92 93 98 98 98 97

GFSNE_850_rhum_015.txt.gz
RH
18 20 24 31 39 42 40 40 57 87 77 72 76 72 74 75 77 80 76 72 81 84 85 82 85 79 77 75 78 79 79 84 96 97 95 96 91 81
19 21 27 39 43 44 47 45 51 75 98 65 70 75 80 89 80 80 81 89 89 95 93 88 82 76 77 77 81 85 87 93 97 92 88 90 91 80
20 30 38 48 51 55 56 54 68 78 91 70 72 70 62 61 77 86 97 96 96 93 91 80 75 76 76 80 92 93 85 88 87 86 88 82 85 90
28 38 46 53 60 67 65 72 78 81 95 94 83 74 63 79 79 90 100 90 92 83 77 76 78 80 83 94 88 91 91 89 91 92 98 99 96 93
43 49 57 68 74 75 82 86 89 99 100 100 92 79 90 78 95 100 86 72 72 75 79 86 90 90 88 84 82 92 94 95 96 95 93 92 92 88
49 60 67 74 75 88 92 93 98 95 92 95 98 100 95 94 93 83 72 78 85 89 98 91 90 86 89 92 91 90 89 91 91 91 93 97 93 92
60 60 61 64 78 90 90 91 88 94 96 99 100 98 93 76 84 84 93 95 95 92 95 86 89 95 98 95 93 93 98 99 98 97 99 98 98 96
52 51 56 64 74 89 89 92 92 97 96 98 97 88 79 92 94 100 99 100 97 92 96 85 96 95 78 75 80 100 100 96 97 98 98 96 98 98
58 61 70 78 76 80 82 97 97 97 98 93 83 91 99 95 99 95 100 100 100 99 100 94 78 83 74 72 81 97 100 100 99 96 98 99 98 97
67 74 90 84 88 93 96 97 82 79 73 86 96 95 98 97 98 99 99 100 99 95 100 97 84 80 76 74 67 65 87 100 100 99 98 97 98 98
78 96 99 96 93 98 97 97 96 78 71 92 100 98 94 96 100 96 93 99 100 98 87 100 87 99 91 79 72 79 94 100 97 98 98 98 98 100
96 89 98 95 94 98 95 97 95 76 98 98 78 69 70 76 94 98 96 98 100 99 89 98 97 100 96 90 82 80 87 79 96 99 100 100 100 99
86 89 82 95 96 92 93 95 93 96 93 84 74 75 80 86 87 94 97 97 97 98 82 98 98 95 100 96 90 91 92 85 91 91 96 97 97 98
96 85 92 99 96 96 92 100 100 100 84 86 87 92 89 89 86 89 93 96 96 97 95 97 96 99 97 98 99 75 85 90 97 92 96 96 97 97
93 96 100 98 77 60 73 100 100 87 98 95 97 90 93 91 89 92 91 91 89 92 95 96 100 97 97 96 97 90 97 83 95 97 98 98 98 98
97 95 81 66 60 72 75 79 86 98 100 100 96 92 92 91 90 95 96 92 93 79 85 96 97 97 95 95 97 95 96 97 94 98 99 98 98 98
99 83 65 64 72 80 82 85 88 91 96 95 95 95 93 94 92 92 96 94 96 96 90 88 94 97 97 96 95 97 97 97 98 98 95 96 97 98
94 73 72 76 87 94 94 93 90 92 94 96 93 96 96 97 95 93 94 96 96 94 96 96 94 83 84 88 97 96 98 98 98 97 96 99 97 100
76 76 79 84 94 95 98 100 96 93 96 95 96 96 97 94 96 95 96 96 92 97 96 96 96 99 99 98 95 98 99 98 98 96 97 97 99 100
79 84 81 93 97 99 100 99 94 92 93 92 96 97 97 98 96 98 99 97 97 96 94 95 95 96 98 97 96 98 98 98 98 98 96 97 98 100
81 75 87 96 99 100 98 95 96 96 97 97 96 96 97 97 94 97 99 95 98 97 95 94 98 99 98 92 96 94 97 97 98 98 98 98 99 99
82 79 92 98 100 99 96 96 94 93 94 96 96 96 97 97 96 98 98 98 98 98 97 95 94 92 94 99 100 100 97 97 96 98 96 98 99 98
78 87 97 99 99 97 97 95 96 96 97 97 96 96 97 96 97 95 97 98 98 96 94 92 93 88 94 96 100 96 97 96 94 97 96 97 98 96

GFSNE_850_rhum_018.txt.gz
RH
20 20 20 26 34 37 43 48 61 74 63 65 67 58 59 72 67 84 79 72 92 86 81 80 90 90 97 92 83 82 74 78 84 84 95 94 94 98
21 21 23 28 34 41 49 59 67 68 90 61 64 73 80 71 63 75 73 90 88 90 90 94 94 84 89 82 73 73 75 77 88 93 92 93 94 99
22 24 26 34 39 51 65 72 74 81 88 67 74 70 63 74 71 82 93 99 93 95 97 97 89 78 75 80 82 89 92 93 95 96 91 92 94 97
25 27 30 41 51 60 70 75 87 86 98 94 79 76 72 72 75 90 99 95 70 65 82 80 78 80 80 85 94 94 94 92 94 91 94 90 90 91
28 33 40 46 50 57 76 90 92 98 98 99 91 77 79 99 97 80 73 73 81 82 84 88 89 90 90 92 88 92 95 96 98 94 94 96 95 97
34 34 36 45 53 87 95 97 97 85 82 92 92 97 97 84 81 75 83 88 94 98 97 95 97 92 90 90 92 91 91 91 91 93 93 94 95 94
35 38 54 60 74 96 95 92 93 91 96 97 95 94 91 84 87 82 100 100 99 100 93 83 87 91 86 86 87 93 99 100 97 94 96 99 98 98
45 60 66 76 77 92 93 97 97 98 92 97 97 98 93 89 91 100 100 100 97 94 98 88 90 92 80 78 79 100 100 99 96 96 98 99 97 98
66 70 81 81 77 80 80 96 98 85 86 94 88 90 98 96 100 96 99 100 100 99 100 92 85 86 78 75 86 100 100 100 100 98 98 99 100 98
74 82 89 84 91 95 95 98 83 80 74 81 95 94 98 98 99 100 98 98 98 95 100 96 87 84 81 78 68 76 98 100 100 99 99 99 99 97
84 94 91 96 93 96 96 99 92 75 70 90 100 100 89 85 98 97 93 100 98 91 84 100 89 100 88 76 73 80 100 100 100 100 99 98 99 98
98 87 87 98 96 100 95 96 94 75 96 99 80 73 70 72 81 95 100 97 100 97 72 98 94 98 95 88 82 80 80 83 91 100 100 100 100 98
87 88 83 97 98 95 96 96 92 96 94 86 76 74 76 80 85 88 94 98 96 96 80 99 96 96 100 96 81 75 93 94 95 94 97 97 97 98
96 90 95 100 99 98 90 98 100 100 83 82 86 86 86 85 87 87 88 90 95 97 95 98 97 98 97 95 99 78 90 88 95 93 96 96 96 97
94 100 100 97 66 59 73 96 91 84 90 96 96 88 88 89 87 89 86 89 86 88 95 97 98 97 97 96 97 90 97 88 89 97 97 97 96 97
95 94 78 64 60 74 76 78 83 90 100 100 97 91 91 89 88 93 94 94 92 79 81 94 98 98 96 94 97 95 96 97 96 96 98 97 97 98
100 80 64 60 72 79 80 82 86 89 95 94 96 94 91 92 90 94 96 96 98 94 84 80 86 92 92 96 93 94 97 97 99 98 97 100 97 97
86 69 65 70 86 90 91 90 89 92 94 96 93 96 95 96 99 95 98 100 98 90 96 94 90 82 68 67 90 97 100 100 99 97 97 98 97 100
66 69 71 83 92 94 97 99 95 91 97 96 97 95 96 97 99 98 99 98 91 94 96 93 95 100 100 98 77 98 97 100 100 99 97 97 98 100
72 76 76 90 94 98 98 98 93 93 94 92 95 97 97 98 98 98 100 98 96 97 90 86 96 98 98 98 96 95 98 96 100 98 96 97 99 100
76 71 79 92 96 98 98 96 96 96 96 96 95 96 97 98 96 100 100 98 99 97 95 93 97 95 96 86 91 92 96 96 96 98 99 98 97 99
76 72 87 94 98 98 96 96 94 95 96 96 96 97 97 98 99 99 100 98 97 98 96 95 91 88 88 91 98 97 96 96 95 98 99 98 99 98
74 81 91 95 98 97 98 97 98 97 97 96 97 96 97 96 98 100 100 98 98 96 97 91 88 90 91 91 97 95 96 96 96 94 97 98 98 98

GFSNE_850_rhum_024.txt.gz
RH
27 28 28 30 32 40 50 58 58 53 46 42 42 48 55 64 68 76 77 80 84 88 90 90 92 93 88 84 95 93 98 93 89 96 93 97 97 92
30 30 30 34 31 40 55 62 62 61 60 49 51 57 64 70 74 78 76 84 86 90 89 88 89 89 90 88 88 89 88 90 89 90 92 88 90 80
31 30 28 27 31 47 59 63 63 64 64 58 64 69 75 76 74 76 80 88 83 76 79 84 89 93 94 93 94 94 95 96 95 95 96 94 94 94
31 28 27 36 32 52 62 66 69 76 78 78 78 80 77 77 84 87 82 70 67 70 80 90 94 95 97 98 95 97 96 96 96 97 96 97 97 96
28 25 28 36 52 66 71 77 82 81 84 91 88 78 82 93 90 78 75 69 73 77 81 88 93 96 100 99 96 96 95 95 96 96 94 94 94 95
27 29 41 52 69 78 85 85 79 85 83 85 89 85 100 85 78 69 70 76 82 85 86 93 91 94 95 93 95 97 96 96 96 98 96 95 95 93
41 54 60 60 47 84 96 91 89 88 90 86 96 98 86 76 68 74 85 88 84 91 85 85 83 87 89 92 94 96 96 99 99 99 99 99 98 97
56 58 71 81 86 95 96 94 94 96 95 99 99 91 78 72 81 89 93 98 97 88 88 88 93 91 86 87 91 96 100 100 100 100 100 100 100 99
63 75 78 80 91 91 95 97 94 99 100 91 93 79 81 85 88 94 99 97 99 92 99 91 89 92 86 80 88 98 96 100 100 100 100 100 99 99
79 82 85 88 89 93 95 94 100 94 85 86 86 90 94 95 98 97 97 96 95 94 100 98 88 94 89 72 57 60 78 95 99 97 98 99 100 100
81 82 88 88 94 94 97 93 90 81 81 88 98 100 100 100 100 100 95 100 100 96 80 100 96 99 87 61 61 69 83 91 84 98 100 98 95 94
78 81 82 91 92 96 96 91 88 82 91 94 95 90 94 97 100 100 96 97 100 100 86 97 98 100 98 85 71 63 66 68 77 82 88 98 99 98
83 80 83 88 94 95 98 95 94 100 100 100 94 96 99 100 100 99 99 100 98 99 77 100 100 98 100 99 74 67 72 75 82 80 81 87 98 98
89 88 89 95 96 95 85 80 100 100 100 100 100 100 100 91 85 87 83 85 91 93 81 89 97 100 98 94 100 75 70 72 84 87 92 95 92 96
95 95 96 97 73 50 67 82 91 100 100 100 100 100 98 89 86 86 83 85 86 79 82 84 96 96 100 100 100 99 100 83 90 97 98 98 97 97
95 95 94 62 70 77 87 96 100 100 100 100 100 98 96 97 92 91 96 92 98 78 76 82 93 100 95 100 100 100 77 100 97 96 97 100 99 98
98 94 86 83 90 97 99 100 100 100 100 100 100 98 94 95 88 89 94 99 98 93 83 78 86 100 100 100 93 74 93 100 100 97 96 98 87 98
94 90 89 96 99 100 99 94 94 96 99 99 96 96 97 94 94 91 94 95 100 93 97 90 99 100 96 88 89 95 94 100 98 98 98 98 94 99
81 99 100 100 100 100 100 98 93 94 96 98 97 95 96 96 96 93 94 95 94 93 96 100 100 98 98 97 71 67 97 93 99 98 100 98 98 98
100 100 100 95 94 95 95 97 96 94 96 95 95 97 96 97 95 96 96 98 96 96 100 98 100 98 98 99 100 70 83 98 98 100 95 87 92 99
99 92 78 87 94 96 98 97 98 96 97 97 95 96 96 97 95 96 95 95 100 98 100 100 91 98 96 94 100 93 77 93 98 98 98 100 97 86
86 70 75 93 97 98 97 98 98 97 97 97 96 96 96 97 96 96 96 98 97 100 100 99 92 100 100 100 100 100 93 90 84 96 98 99 99 98
68 66 89 95 97 98 98 99 98 96 96 96 96 96 96 96 97 97 97 98 98 100 96 96 97 98 93 100 100 99 97 94 98 99 95 97 98 98

GFSNE_850_rhum_027.txt.gz
RH
25 27 29 32 36 39 40 49 60 61 56 47 43 41 45 50 56 66 70 71 79 81 83 85 88 88 87 88 90 94 94 93 94 96 94 95 92 91
28 29 32 34 34 33 42 54 56 60 63 55 54 55 58 63 68 72 72 77 79 79 84 87 84 84 86 91 94 97 94 98 99 97 96 97 98 97
30 35 35 32 33 39 40 48 56 60 64 65 71 72 74 76 76 75 79 73 77 75 76 79 84 89 91 93 95 95 98 100 99 99 97 97 98 97
35 37 34 40 43 43 54 60 63 66 73 76 78 80 82 78 81 87 80 89 72 69 73 81 87 90 92 95 95 98 96 97 97 98 99 100 99 98
38 36 40 46 53 57 65 71 76 81 80 78 82 82 82 84 89 94 75 73 68 72 78 82 88 92 95 92 93 94 94 95 96 96 95 98 98 97
41 49 51 57 63 68 72 82 88 85 87 89 85 79 92 97 91 76 71 73 81 81 81 77 88 89 91 89 93 96 98 99 100 100 96 98 98 98
41 49 60 64 65 83 93 92 92 89 88 82 94 99 100 89 80 76 80 91 76 86 98 59 89 74 72 85 90 95 96 98 98 99 99 100 100 100
49 49 59 67 71 79 89 89 91 91 96 96 100 99 91 89 81 88 83 100 98 81 95 81 74 72 81 77 91 95 98 100 100 100 100 100 100 100
48 64 71 73 79 84 87 89 90 93 98 95 95 92 88 87 80 89 96 100 96 84 94 92 70 77 76 69 76 97 97 94 92 100 100 100 100 99
65 71 77 78 82 85 88 95 85 82 83 87 86 89 85 90 97 98 97 93 83 77 100 98 82 79 83 81 61 58 59 89 99 100 100 100 100 100
67 72 74 81 80 88 89 90 89 90 82 83 91 97 100 97 95 94 89 91 96 83 96 100 93 98 81 66 63 73 69 73 65 78 95 100 100 100
73 76 77 79 85 89 92 98 91 90 88 89 90 88 93 89 98 94 96 98 96 96 86 98 95 100 96 85 76 66 59 61 66 65 74 94 98 98
87 84 82 86 91 92 94 94 94 99 94 94 90 90 88 91 100 100 100 100 96 94 76 100 99 97 100 99 81 68 70 66 68 69 72 77 92 98
89 87 88 94 94 94 96 96 100 100 96 95 96 97 100 98 93 92 88 92 99 100 83 97 97 100 98 99 99 74 71 67 69 73 81 87 97 98
90 93 94 94 94 89 85 100 100 96 98 97 98 100 98 96 92 89 87 90 95 81 80 86 100 100 100 99 100 92 98 81 67 87 98 97 98 96
90 87 93 93 83 83 86 90 94 98 98 96 94 93 96 94 90 91 96 91 100 79 76 84 96 99 98 96 100 100 100 100 95 100 100 95 86 95
96 86 74 80 81 84 91 92 93 99 99 96 97 97 95 97 89 89 93 100 100 100 86 76 85 99 99 98 96 88 98 98 89 100 99 96 81 86
92 80 84 87 90 92 97 91 93 97 98 97 97 97 100 96 94 92 97 99 100 100 100 90 99 95 88 98 95 96 95 90 91 96 100 100 96 78
79 88 93 96 95 100 100 99 95 96 98 98 98 96 96 95 96 93 96 100 100 100 89 99 100 98 98 97 80 93 97 91 93 100 100 100 100 82
88 98 99 95 92 98 98 98 97 95 96 96 96 96 96 98 96 96 97 100 97 92 96 96 100 98 99 99 99 74 74 97 98 99 96 96 98 95
95 95 88 86 95 98 98 97 98 96 96 96 94 95 96 98 94 96 97 97 100 98 100 96 96 99 96 97 99 95 83 94 98 98 99 100 100 95
92 82 72 90 98 98 97 97 96 95 95 96 96 97 97 97 96 96 97 98 94 98 98 94 90 96 98 99 99 97 94 92 85 95 97 98 98 98
74 65 83 96 97 96 98 98 96 95 97 98 97 96 96 96 97 97 96 94 97 97 98 95 93 90 91 99 99 97 97 92 96 94 94 98 97 97

GFSNE_850_rhum_030.txt.gz
RH
38 29 25 25 28 32 36 39 49 63 57 38 43 41 36 33 36 48 57 58 77 84 86 85 85 88 87 87 86 90 93 97 98 98 98 98 97 97
32 26 26 29 33 34 34 34 40 51 60 45 46 50 56 68 70 67 63 77 75 83 86 86 86 86 87 86 90 96 99 99 97 99 99 98 98 99
27 26 29 35 35 33 33 31 33 48 63 59 62 75 80 81 74 82 67 70 80 72 88 85 82 85 86 89 91 93 97 99 100 99 99 99 99 98
26 31 35 36 34 33 32 38 55 63 71 81 86 85 85 84 74 70 72 80 70 71 82 79 85 89 90 92 96 94 94 94 96 98 98 99 99 99
33 35 34 34 31 34 45 56 60 64 74 90 86 86 76 73 78 85 81 76 76 75 78 86 85 94 97 94 94 92 93 94 97 99 99 98 99 99
33 30 31 37 46 59 65 69 81 85 93 93 90 93 98 79 97 90 84 82 80 69 70 75 79 86 71 90 85 86 98 100 100 99 99 99 99 99
25 20 29 48 59 72 82 83 90 95 92 97 100 100 98 98 89 92 92 82 73 71 89 97 69 61 59 59 62 63 97 100 100 100 100 100 100 100
16 20 35 44 52 75 83 87 88 92 94 88 98 100 89 95 94 95 86 80 100 92 98 82 64 59 64 66 69 94 99 100 100 100 100 100 100 100
18 31 50 59 66 72 81 88 90 94 94 93 94 90 94 94 94 91 91 98 99 87 89 96 62 69 70 74 68 66 98 98 100 100 100 100 100 100
25 48 65 70 74 83 85 91 91 82 82 93 96 94 94 94 97 98 98 99 87 73 75 100 78 90 72 75 67 61 62 76 100 100 100 100 100 100
32 53 64 74 81 85 90 85 84 88 88 81 93 99 100 100 100 99 94 100 95 92 84 100 89 94 80 71 64 69 71 90 76 75 91 100 100 100
24 45 62 88 90 91 88 94 98 90 84 93 88 77 72 75 82 91 99 99 97 100 85 100 95 99 97 88 78 70 63 65 69 71 69 73 80 95
84 83 85 92 92 92 92 95 94 94 96 91 84 76 78 79 83 88 99 100 99 99 76 100 97 97 100 96 82 73 72 66 71 69 63 63 72 90
90 91 89 95 95 95 95 94 96 99 90 85 88 84 87 86 86 88 89 89 90 96 87 92 97 100 98 96 95 80 74 73 78 76 73 72 75 79
87 92 97 97 94 89 79 94 98 86 90 94 93 88 88 87 87 86 83 85 88 80 80 86 100 97 99 100 100 91 90 80 75 82 90 84 91 94
83 96 88 73 66 83 70 74 82 88 98 98 94 87 86 89 88 90 94 93 98 81 78 84 93 100 97 97 100 100 83 100 90 91 96 92 86 89
96 84 63 62 68 64 71 81 84 88 90 93 93 93 91 93 91 93 94 99 100 96 82 75 83 94 93 96 96 83 90 94 90 93 100 100 90 88
96 83 73 76 76 72 82 88 89 89 92 94 94 96 96 97 96 94 98 98 100 94 94 86 91 90 87 97 96 95 92 92 91 100 100 100 92 79
75 73 77 77 73 78 91 93 90 89 95 97 96 96 97 96 98 94 95 98 96 95 88 90 97 100 98 97 81 95 96 94 98 95 100 100 100 90
76 79 77 73 73 90 94 95 92 92 96 95 95 97 97 98 96 96 97 100 97 93 96 89 96 97 98 98 98 71 80 97 98 98 99 100 95 93
72 70 69 69 89 94 96 93 94 96 97 97 96 96 96 98 95 96 98 98 100 99 100 98 96 98 96 94 100 94 77 84 97 98 98 99 98 100
71 65 65 88 94 96 95 94 95 94 96 96 96 96 96 97 97 96 97 100 97 98 98 96 95 95 95 99 99 96 92 83 82 87 97 98 98 98
66 66 87 94 96 96 95 94 94 95 97 98 98 98 99 99 99 97 96 96 96 96 97 93 92 92 91 97 100 97 96 92 94 93 88 96 97 96

GFSNE_850_rhum_033.txt.gz
RH
52 47 37 28 25 27 32 37 41 50 44 30 33 29 27 30 33 45 65 57 67 87 88 91 92 91 89 89 88 91 94 97 98 98 100 100 99 97
50 43 31 26 28 34 35 34 35 42 55 35 33 35 38 37 47 63 65 57 56 57 93 95 91 92 90 87 88 90 94 97 98 98 98 99 99 98
44 34 26 29 34 35 34 32 33 37 47 45 43 45 54 53 50 55 58 61 59 60 89 94 93 91 90 90 92 95 92 98 98 98 99 98 99 99
36 27 30 36 37 36 35 33 34 41 52 57 62 64 69 65 67 69 72 67 64 58 80 92 89 93 94 97 97 99 97 92 98 99 98 98 98 99
29 32 35 36 34 33 36 39 44 55 64 74 83 83 83 73 76 82 90 69 66 64 82 78 74 73 91 99 97 96 95 96 95 99 100 100 99 99
32 32 30 30 31 40 47 56 68 78 85 92 93 91 84 82 91 92 82 73 73 68 68 69 62 63 75 65 60 62 65 98 100 100 100 99 99 100
31 24 20 24 39 47 61 75 84 87 90 95 94 89 99 98 88 82 92 86 76 71 71 82 75 71 53 54 58 60 60 99 100 100 100 100 99 98
21 17 20 26 36 42 60 82 88 89 92 92 96 99 94 88 87 94 92 86 100 80 96 85 72 66 54 61 64 80 94 100 100 100 100 100 100 100
17 18 19 28 49 66 67 82 87 91 94 95 92 87 95 92 94 92 94 99 99 86 84 87 72 76 66 70 71 65 63 90 99 100 100 100 100 98
18 17 21 38 55 65 82 90 97 94 82 86 98 99 99 95 98 98 98 98 94 82 80 99 84 86 80 73 66 61 60 66 98 100 100 100 100 100
16 16 31 42 54 91 91 91 89 90 94 88 79 97 100 100 98 100 94 97 91 88 79 100 84 86 91 72 66 68 72 80 82 70 96 100 100 100
25 28 33 63 94 93 94 98 98 92 86 88 88 82 75 74 76 86 93 100 98 100 82 100 93 93 100 89 83 74 69 67 67 70 74 82 98 100
53 42 49 64 95 94 95 97 96 92 96 90 84 74 74 74 78 82 87 99 100 100 79 100 96 95 100 100 84 75 73 69 70 67 68 72 80 94
46 42 61 96 97 96 93 94 95 98 87 79 81 78 80 79 81 83 85 88 89 90 82 89 96 99 97 96 94 76 76 74 75 70 70 70 74 76
46 85 100 100 89 54 55 88 72 76 82 84 85 84 88 88 85 84 85 84 84 76 77 86 97 96 98 99 100 90 86 75 72 73 81 79 88 85
84 100 100 79 54 55 55 64 78 85 90 93 93 90 88 89 87 87 88 88 91 73 73 82 89 98 96 96 100 99 82 98 77 79 90 90 86 82
98 86 59 49 50 53 64 80 83 86 90 94 96 95 93 93 88 86 89 94 98 94 82 72 79 90 92 92 94 80 79 82 80 86 96 99 85 83
88 63 59 61 61 63 81 84 85 88 91 94 94 95 96 94 92 89 96 98 98 91 89 83 88 88 83 88 96 91 87 89 86 98 100 100 100 98
62 60 64 64 62 80 89 90 89 89 93 94 95 96 96 94 97 93 93 97 95 92 86 89 100 98 98 99 78 96 96 92 96 93 92 100 100 96
61 65 63 61 78 90 90 91 89 90 93 94 96 98 96 97 94 96 96 98 95 92 95 88 94 98 98 98 99 77 80 97 97 98 100 100 98 94
61 59 60 78 91 93 92 93 93 92 98 97 94 96 96 97 95 96 96 96 99 97 96 92 88 94 98 99 100 94 78 81 94 98 97 98 96 96
62 60 80 90 93 94 95 95 91 92 94 96 97 97 98 98 96 96 96 97 95 96 94 93 91 96 97 100 99 97 94 84 80 79 92 98 98 98
63 82 88 91 94 95 96 95 93 94 99 99 100 100 97 98 98 96 96 95 96 96 100 94 92 93 90 95 100 99 95 94 96 94 90 96 96 96

GFSNE_850_rhum_036.txt.gz
RH
51 51 50 44 36 28 26 29 35 44 41 30 25 25 27 26 24 25 27 28 30 45 61 86 95 95 94 93 88 89 91 97 97 98 99 98 98 97
51 51 47 38 30 28 31 34 35 40 50 38 28 29 30 28 32 38 39 40 38 41 54 96 96 94 94 91 95 96 91 96 98 99 100 99 99 98
50 49 44 34 29 33 36 34 35 36 41 38 37 36 40 37 32 34 37 42 42 48 46 97 98 97 94 94 92 93 96 97 98 100 99 98 100 98
47 40 32 31 33 33 34 33 32 35 42 45 55 55 55 48 52 50 46 42 46 44 50 94 97 97 97 98 100 100 99 99 99 94 95 98 99 94
37 38 50 46 39 30 28 29 35 40 50 69 76 76 80 67 65 58 59 46 50 53 56 58 64 70 94 99 100 100 98 97 95 96 97 96 100 100
74 89 86 38 27 23 30 37 47 66 75 79 80 90 88 73 72 77 72 57 67 61 61 64 67 70 61 70 70 59 57 56 78 99 100 99 99 100
90 53 28 22 21 30 43 54 74 80 79 87 95 94 87 86 82 75 79 77 79 77 63 72 68 67 60 60 60 60 58 58 99 100 100 100 98 99
38 23 19 21 25 32 44 81 84 88 92 92 94 95 90 84 80 81 94 93 100 78 76 85 71 70 68 65 62 60 64 99 100 100 100 100 100 100
22 18 19 20 25 36 47 53 65 87 92 94 95 92 86 80 89 93 96 100 99 77 78 86 75 70 65 67 63 61 60 81 100 100 100 100 100 100
21 21 20 23 27 34 57 88 89 88 91 93 87 85 90 92 97 99 98 94 87 76 76 98 76 72 73 68 62 57 59 61 64 97 100 100 100 100
22 25 32 30 25 61 91 95 99 93 87 80 84 97 100 100 99 98 84 94 88 82 73 98 80 89 80 67 61 62 64 67 72 75 87 99 100 100
26 28 24 22 48 94 96 100 98 88 83 90 89 82 79 73 77 84 91 100 97 100 82 98 90 90 99 86 77 74 68 66 67 69 72 78 100 100
34 21 21 36 94 99 97 96 91 92 99 92 80 72 74 74 77 80 85 94 98 99 82 100 96 92 100 97 87 73 74 71 71 67 66 69 75 97
26 29 50 93 100 99 80 56 97 98 75 76 79 78 80 78 78 80 81 85 89 88 82 90 96 96 99 96 96 79 78 76 74 68 70 66 72 79
52 83 99 92 84 63 49 52 59 76 81 82 84 85 88 85 81 81 81 80 80 75 77 82 94 95 99 100 100 89 83 74 73 70 72 76 81 85
84 95 96 83 60 52 52 61 79 83 87 91 91 88 86 86 86 87 86 86 88 74 73 79 84 94 95 95 100 92 78 99 74 72 78 85 85 87
99 91 64 48 46 47 60 78 80 82 86 92 92 88 90 92 88 87 88 92 97 89 79 70 76 86 89 91 94 81 77 77 74 82 94 95 93 91
78 60 54 53 53 60 80 79 82 85 89 91 92 95 96 96 95 91 96 95 93 87 85 80 86 88 81 85 97 90 80 87 86 94 100 100 100 96
56 55 54 54 59 82 86 87 86 88 91 94 93 94 96 98 99 93 93 95 94 92 89 90 96 98 97 99 82 97 97 94 97 92 89 94 100 87
54 54 53 62 85 88 89 90 90 91 92 92 95 98 96 97 96 96 96 99 98 97 98 92 94 97 98 98 99 75 77 97 97 97 98 99 94 86
52 54 68 87 89 92 92 93 96 94 97 99 96 96 96 97 96 99 97 95 98 98 98 92 89 94 96 94 100 90 78 83 97 97 96 97 95 94
57 71 89 91 92 92 94 96 94 93 95 95 95 97 99 98 98 98 98 98 95 97 97 95 90 92 94 98 98 98 91 85 86 91 95 98 98 98
78 90 91 92 92 93 97 96 94 94 96 96 97 100 97 94 98 97 96 96 98 100 100 98 89 92 92 100 100 98 95 94 94 87 72 81 90 95

GFSNE_850_rhum_039.txt.gz
RH
53 52 63 55 47 42 41 32 29 33 33 28 26 23 23 23 23 24 23 22 24 22 18 20 40 87 96 96 95 94 90 94 92 98 98 98 99 99
65 74 53 51 45 39 33 30 31 36 42 36 30 25 26 24 26 29 28 32 29 28 27 32 74 92 97 96 95 94 100 96 90 98 99 99 99 99
77 87 62 48 43 35 32 34 34 36 40 36 33 31 30 32 28 27 29 32 29 28 26 29 78 99 100 100 99 98 95 99 100 100 98 100 99 99
87 84 54 46 37 38 44 45 42 34 39 39 39 40 46 46 45 48 43 39 35 28 31 40 94 99 99 100 100 100 99 100 100 100 100 100 99 99
74 48 45 47 68 81 83 40 30 32 39 47 53 61 65 67 67 60 56 44 38 35 42 50 58 61 95 100 100 100 100 98 100 100 98 96 97 96
80 63 92 99 99 72 32 28 33 40 48 62 69 74 86 80 78 72 69 62 52 57 48 56 63 64 68 61 64 61 64 70 94 99 100 100 99 100
99 100 99 77 27 23 30 37 50 66 78 77 85 92 90 89 86 82 80 64 77 73 53 62 74 66 58 56 59 58 56 55 70 100 100 100 100 100
99 64 27 23 22 24 28 37 59 84 88 93 94 96 97 94 91 82 84 90 99 82 73 70 74 66 61 63 58 56 56 59 95 100 100 100 99 99
30 24 20 21 22 25 25 28 39 56 85 97 98 94 92 86 91 93 95 99 100 88 79 76 76 66 62 63 58 57 56 56 85 100 100 100 100 100
25 24 23 25 26 23 32 68 76 88 92 92 88 84 91 95 97 99 99 97 89 78 76 94 76 69 74 62 56 55 56 60 65 84 100 100 100 100
27 28 33 34 27 22 60 93 99 89 83 78 74 84 86 99 100 90 81 88 88 84 73 89 74 86 80 65 60 59 63 67 69 74 82 99 100 100
29 32 36 26 26 83 99 100 100 85 78 87 73 63 65 69 76 83 88 98 99 100 83 94 88 92 98 83 80 78 71 66 65 66 69 72 93 100
30 21 22 37 86 100 99 96 76 93 98 77 64 70 73 74 78 81 85 92 97 100 79 100 96 97 100 97 91 78 72 68 68 64 64 69 75 89
26 34 51 93 100 95 66 45 74 89 55 73 79 77 79 78 79 81 84 85 88 90 80 89 98 98 99 95 94 78 75 74 72 67 70 67 70 75
58 86 90 83 68 45 39 39 44 62 80 81 80 80 86 85 84 82 78 80 79 77 78 84 95 96 98 98 100 90 82 73 76 72 71 74 77 80
74 83 77 64 49 45 43 49 75 82 85 87 87 87 88 87 84 88 87 86 85 74 76 80 85 95 97 96 100 89 78 98 71 70 76 82 86 87
86 50 42 42 42 43 54 78 81 83 84 86 89 91 89 89 87 89 91 92 96 89 79 75 82 90 92 92 93 81 78 77 72 76 87 92 86 85
42 46 46 47 48 59 80 80 82 85 89 90 93 93 92 92 91 90 98 98 94 90 87 82 86 88 80 79 92 88 80 85 79 89 100 100 99 100
49 50 50 50 64 85 87 87 87 90 91 92 92 92 95 96 98 94 95 96 93 90 86 88 94 98 98 100 76 94 96 93 97 94 89 94 97 88
52 53 54 72 87 89 90 92 90 91 92 92 92 95 99 100 95 96 97 97 94 91 92 89 98 98 98 98 98 74 81 96 97 96 97 99 97 87
54 58 80 88 90 92 93 94 94 93 93 96 96 96 100 100 96 96 97 95 98 96 96 92 93 97 98 95 99 88 75 87 97 97 96 98 95 85
62 83 87 90 94 95 95 95 93 91 90 92 94 98 100 96 96 97 96 97 96 96 95 94 92 97 95 98 97 94 89 83 81 88 95 98 98 97
82 88 88 92 95 95 96 96 95 92 92 92 94 95 100 98 98 97 94 92 96 98 98 97 92 100 98 97 97 96 94 92 91 85 71 82 93 94

GFSNE_850_rhum_042.txt.gz
RH
76 64 63 76 50 57 63 46 52 35 34 35 32 31 30 28 25 25 23 24 21 22 19 16 15 20 71 96 95 96 96 94 92 95 100 99 91 98
70 68 73 57 63 63 60 56 38 34 37 42 42 35 29 24 24 26 29 26 24 25 24 19 21 53 95 98 97 97 98 96 98 100 97 96 99 100
69 70 69 69 78 83 65 73 56 44 44 51 47 29 27 27 30 30 25 27 27 25 21 20 22 82 100 100 100 100 100 100 100 99 100 99 100 100
70 82 89 91 87 91 86 84 94 97 98 46 31 31 34 34 35 30 37 42 46 32 24 19 51 87 92 99 100 100 100 100 100 100 100 100 100 99
91 96 97 93 90 98 100 99 100 87 43 39 45 47 49 40 48 56 59 55 42 37 26 40 54 57 55 93 100 100 100 100 100 100 100 100 100 98
98 95 93 99 100 99 100 94 41 37 41 50 55 62 61 64 71 78 72 65 60 48 42 56 63 60 56 59 59 58 59 60 85 100 100 100 100 100
96 100 99 99 99 93 40 28 42 60 67 69 71 71 74 75 84 87 90 74 80 69 54 56 58 57 52 54 57 56 57 57 69 100 100 100 100 99
99 99 98 77 30 25 29 33 37 47 52 70 74 88 88 88 94 90 90 91 93 80 71 58 68 61 58 60 58 57 59 61 73 100 100 100 100 99
98 86 32 26 24 24 25 23 22 30 60 92 86 89 94 95 94 95 91 94 96 86 79 69 75 64 61 62 61 62 59 56 60 91 100 100 100 100
33 28 26 25 26 24 18 25 47 44 66 79 84 86 89 96 99 100 100 91 85 79 77 87 72 69 74 64 62 59 58 61 63 67 100 100 100 100
30 31 30 27 21 17 29 71 97 95 85 74 58 60 65 66 76 80 79 91 88 85 78 91 71 82 76 68 65 64 63 67 70 72 73 81 96 100
32 30 26 19 24 78 100 100 93 71 57 46 43 48 62 71 76 83 88 94 97 100 89 99 85 88 98 83 77 75 65 62 64 64 65 68 70 100
20 19 28 44 85 98 97 91 63 89 90 60 55 69 69 72 74 76 82 92 98 96 78 100 92 90 100 98 80 72 68 66 66 62 63 66 73 81
31 36 49 89 95 82 62 46 87 70 49 68 73 72 74 76 78 81 82 84 88 88 79 90 96 95 98 94 90 73 73 73 71 68 71 70 70 74
48 63 74 70 48 40 39 39 42 59 77 77 75 76 83 85 81 80 78 84 83 78 81 87 96 95 98 98 99 91 87 71 77 74 74 74 74 75
47 47 47 42 40 40 40 48 72 78 81 83 84 83 85 83 82 89 87 87 84 72 77 82 91 97 95 94 98 88 78 98 71 73 80 79 82 84
45 38 38 36 36 37 56 75 78 80 83 87 86 86 87 90 87 89 90 89 94 88 76 73 81 88 88 86 89 80 81 78 77 78 92 94 79 79
36 37 37 38 43 66 76 76 80 86 89 89 88 91 93 93 89 85 93 92 90 85 83 80 82 86 80 78 86 87 82 86 80 93 100 100 100 86
38 41 44 50 74 81 82 83 84 89 92 91 90 94 97 94 94 86 87 90 87 86 85 88 91 99 99 100 80 98 96 93 94 88 88 93 99 80
44 47 54 80 83 84 86 87 90 92 92 91 90 93 98 100 100 93 95 96 95 91 92 87 86 98 98 98 98 72 88 96 97 96 98 95 91 83
48 56 84 87 88 89 91 92 94 94 94 93 93 94 98 100 97 97 92 94 99 96 96 89 86 91 95 94 100 89 76 91 97 96 94 97 88 78
56 77 87 89 92 93 94 94 91 91 92 91 90 93 98 100 100 94 89 94 89 90 93 90 88 92 99 97 96 96 89 80 83 89 91 98 98 97
62 83 86 90 94 95 96 94 93 93 93 89 90 93 96 100 100 93 91 95 95 95 100 96 91 94 100 98 97 95 89 87 84 86 75 78 82 88

GFSNE_850_rhum_045.txt.gz
RH
100 98 93 73 58 57 56 71 80 50 54 46 39 36 36 43 44 35 26 23 23 21 14 10 10 12 14 34 63 94 97 95 95 95 93 91 99 99
100 98 92 77 66 65 76 79 74 61 44 42 47 54 59 85 81 36 26 27 27 22 21 18 16 20 56 86 95 96 96 97 100 100 100 97 99 99
100 96 81 66 72 82 88 73 74 69 69 86 96 100 98 85 38 26 29 29 28 25 23 19 20 21 76 96 96 96 95 100 100 100 100 100 99 100
94 82 68 71 83 82 91 92 94 97 100 97 98 98 73 29 25 28 24 29 33 32 27 18 16 28 41 58 97 100 100 100 100 100 100 100 100 100
76 72 78 87 93 98 100 100 99 99 99 99 92 41 33 34 36 34 37 36 35 27 17 22 32 44 48 52 97 99 98 98 100 100 100 100 100 100
83 89 97 100 99 100 100 99 100 99 82 43 45 52 54 47 46 46 46 51 52 33 29 45 54 53 52 53 56 56 58 59 66 96 100 100 99 100
96 99 99 100 100 99 100 97 70 31 30 56 64 58 54 49 61 84 92 82 83 51 55 49 50 52 50 53 54 54 54 55 55 75 100 100 100 99
99 100 99 99 100 84 41 28 32 32 37 57 63 54 67 68 92 96 97 100 97 77 68 78 81 62 57 58 57 56 55 55 62 99 100 100 100 100
100 100 97 66 27 28 32 28 26 26 42 71 66 78 96 91 74 75 88 100 100 86 79 82 64 61 60 57 55 54 52 55 58 80 100 100 100 100
77 34 30 31 33 30 23 19 23 29 51 76 87 75 59 70 98 99 94 96 89 72 79 98 62 71 71 61 55 54 56 60 62 71 99 100 100 99
32 31 32 25 17 17 29 58 71 78 72 62 44 46 58 59 70 80 79 89 88 75 78 87 76 92 75 62 61 62 62 64 65 67 68 72 96 100
27 24 17 15 20 49 98 95 89 66 44 36 35 40 61 69 74 82 87 90 92 94 89 94 84 96 100 80 72 69 63 64 64 67 69 71 72 97
17 21 29 35 89 100 100 89 59 74 50 39 50 65 68 71 76 80 84 88 88 84 79 100 85 87 100 96 77 70 68 66 68 66 67 70 74 79
33 40 48 68 67 54 41 37 37 40 45 66 69 69 72 75 76 79 79 84 91 88 82 96 94 96 100 96 89 73 72 70 73 71 72 71 72 76
43 45 43 39 37 35 36 35 41 64 75 76 76 77 80 79 80 80 79 81 79 79 82 85 90 92 96 95 94 81 82 70 72 72 73 75 74 77
34 37 34 34 36 35 38 56 77 81 83 84 84 82 81 81 80 84 82 81 76 69 72 76 84 94 94 90 95 79 74 96 70 72 80 79 80 81
34 37 38 37 38 47 72 78 81 83 84 85 84 82 82 84 84 84 83 83 87 80 73 74 83 87 87 84 83 74 79 77 76 81 95 87 74 76
39 41 41 42 53 74 73 74 79 84 86 87 86 86 87 89 88 83 88 92 87 81 81 80 83 86 82 84 84 80 89 87 83 93 100 100 93 88
40 41 42 51 74 77 79 80 82 88 90 90 88 87 89 91 93 91 92 89 86 83 80 82 87 99 98 100 86 97 95 93 100 90 90 95 96 76
40 44 51 76 80 82 86 86 86 89 91 92 90 88 89 96 98 99 94 93 90 90 93 83 83 93 100 100 100 82 92 94 93 91 86 91 89 79
45 53 73 85 88 87 88 88 90 90 92 93 92 92 95 100 100 100 98 88 93 94 98 89 84 91 94 100 100 97 88 93 97 96 92 93 83 77
47 54 81 86 88 87 88 89 88 91 92 93 90 90 95 97 100 100 93 99 92 93 92 87 90 100 100 100 99 97 83 78 82 87 94 97 97 95
46 52 76 83 87 87 88 90 91 92 96 97 95 90 93 93 94 92 100 100 97 96 94 99 100 100 100 100 100 98 85 80 81 83 74 88 94 92

GFSNE_850_rhum_048.txt.gz
RH
91 96 97 96 99 96 86 67 54 49 58 78 86 57 45 44 37 39 41 66 77 53 26 18 13 10 9 7 7 7 21 80 95 97 96 94 94 96
100 100 100 100 98 85 75 57 51 63 78 77 70 76 56 55 58 84 98 98 89 45 21 14 12 11 10 10 11 38 87 96 96 96 95 94 99 100
100 100 100 100 90 97 84 68 70 79 86 92 86 92 96 99 100 99 99 81 36 26 18 12 12 12 14 14 36 89 97 95 97 95 93 98 100 100
100 100 100 100 96 80 80 83 88 94 96 99 100 100 99 99 100 94 50 31 24 19 16 18 16 13 16 21 48 96 96 99 96 100 100 100 100 100
100 100 99 90 87 91 95 97 98 99 99 100 100 99 98 80 38 36 30 31 26 29 23 14 16 23 32 37 47 74 92 96 96 96 96 99 99 100
99 95 90 88 93 98 100 99 99 100 98 98 98 83 48 37 38 46 77 83 82 73 36 28 40 41 41 43 45 46 48 50 52 80 98 100 100 100
87 90 96 100 100 100 100 100 98 98 87 46 53 78 95 90 83 84 90 88 80 62 69 83 88 85 84 62 47 46 47 50 52 55 96 100 100 100
93 100 100 100 100 99 99 87 53 32 34 58 88 91 88 85 87 90 93 93 91 78 95 96 88 82 66 53 50 51 52 53 56 94 98 100 100 100
100 100 100 100 96 75 37 28 25 25 26 67 94 87 88 92 94 69 99 98 100 94 98 93 74 90 70 70 58 54 54 54 56 58 83 99 100 100
99 96 67 39 31 30 26 20 20 30 46 75 91 93 96 95 97 97 98 100 99 95 98 96 86 92 82 68 54 52 52 56 56 58 74 100 100 100
31 31 30 24 18 16 30 52 66 94 77 63 46 40 40 39 49 77 78 100 100 96 93 90 79 99 78 61 56 57 58 58 60 64 68 73 84 100
24 18 15 19 23 58 99 100 98 89 75 46 72 42 46 64 68 72 78 87 95 87 92 82 76 100 100 77 79 78 68 67 68 68 66 67 70 95
16 18 25 31 45 72 93 91 59 48 90 41 47 65 66 69 74 79 81 82 79 81 80 100 84 87 100 100 75 77 71 67 73 68 70 70 74 80
30 34 41 37 35 38 36 34 33 33 37 58 68 70 72 74 75 76 77 82 87 84 79 92 95 88 92 90 88 72 75 68 71 68 68 69 71 71
33 33 33 34 33 33 32 32 35 53 70 70 71 72 74 71 72 76 77 79 78 73 74 78 86 88 93 94 94 86 80 66 65 70 74 74 79 84
35 36 35 34 33 33 35 46 68 72 73 75 77 76 74 74 75 81 79 79 76 70 72 73 79 84 86 84 97 88 74 98 72 73 83 86 86 87
34 34 35 35 37 43 63 74 76 78 81 84 85 84 82 81 81 84 83 82 84 77 70 74 81 86 88 87 87 79 79 81 82 84 99 97 90 87
36 37 38 39 49 73 77 79 81 85 89 91 90 88 85 83 82 84 88 91 92 83 78 77 80 86 83 85 93 85 93 94 86 99 100 100 96 94
39 40 42 48 73 79 81 82 83 86 89 89 89 90 90 88 87 87 90 93 90 89 82 83 100 100 100 99 97 97 100 92 89 100 100 100 100 77
41 45 49 64 79 81 82 82 83 86 89 91 92 92 93 93 91 90 94 97 88 88 97 97 96 96 100 100 100 93 91 95 91 90 87 89 93 82
42 46 51 69 78 80 81 83 85 87 92 93 94 95 95 95 93 94 95 93 95 96 100 100 84 91 99 95 100 97 95 99 99 96 90 100 89 79
42 44 50 69 78 79 81 82 82 85 89 92 94 95 96 96 94 93 93 93 91 93 91 87 91 100 99 99 97 92 89 90 94 97 97 96 97 96
43 43 48 60 76 80 80 79 80 86 90 93 93 95 97 96 94 94 94 91 94 90 91 100 99 99 95 95 100 96 89 88 86 91 98 93 92 91

GFSNE_850_rhum_051.txt.gz
RH
100 100 99 100 99 100 97 92 97 86 71 55 54 51 54 46 64 88 72 47 52 46 57 89 92 71 31 18 9 7 6 32 63 81 95 96 96 94
100 100 100 99 99 100 100 99 84 72 74 87 86 75 79 86 78 74 74 76 83 94 99 98 77 26 11 8 7 7 10 56 90 95 96 96 95 92
100 100 100 100 100 100 100 92 78 82 98 92 86 87 88 88 89 94 99 99 99 99 84 35 16 10 9 10 9 13 16 65 94 97 95 95 92 98
100 100 100 100 100 100 97 93 97 94 92 92 100 98 100 100 100 99 98 97 77 38 20 11 10 13 11 10 12 17 37 91 96 98 96 98 100 100
100 100 100 100 100 100 99 93 91 97 97 100 99 100 100 99 99 97 88 46 24 26 28 31 21 14 17 26 33 43 69 84 92 96 98 99 99 100
100 100 100 99 97 94 93 96 98 99 100 100 99 98 97 82 50 34 39 66 68 36 35 33 24 36 41 45 42 45 46 47 50 66 91 99 98 100
100 98 95 96 98 99 100 98 100 98 97 99 88 52 48 74 84 79 80 71 57 28 61 40 63 53 52 45 48 54 60 79 94 96 100 100 100 100
95 98 99 100 100 99 100 98 98 96 86 38 44 82 73 82 82 84 83 74 44 52 78 56 64 60 51 51 54 59 74 88 86 96 99 100 100 100
100 100 100 99 98 97 83 44 24 27 29 40 64 83 85 84 86 70 68 72 70 58 82 53 60 66 54 53 54 55 57 60 66 65 70 98 100 100
99 99 91 60 34 27 24 24 25 26 33 52 71 64 78 85 88 91 92 77 70 78 98 79 62 64 56 54 54 54 53 58 60 60 61 76 98 100
30 28 28 25 21 16 15 35 43 72 96 74 49 42 35 33 34 34 49 73 73 68 67 82 67 84 64 52 51 52 58 63 64 65 64 66 83 100
19 16 14 16 19 22 35 74 95 93 84 58 59 65 41 47 60 64 65 70 83 90 91 82 80 86 96 60 62 63 57 55 60 66 66 64 81 100
19 24 28 26 35 42 38 50 75 50 34 88 57 61 72 72 72 71 73 78 80 78 73 97 78 78 94 86 62 63 68 64 62 65 65 65 69 89
29 39 55 30 27 26 26 27 28 28 31 40 63 67 71 74 73 72 73 77 80 77 76 85 89 81 86 87 83 66 67 68 67 64 64 67 74 79
37 31 31 28 27 28 26 28 28 33 58 67 71 78 81 76 74 72 73 74 75 73 73 77 81 81 87 88 90 77 74 61 63 65 71 79 82 85
36 31 29 29 29 29 30 34 54 68 70 73 77 77 76 76 73 72 73 75 76 70 72 76 77 96 98 96 100 91 79 100 75 71 82 86 89 84
34 36 37 40 36 40 49 67 71 73 75 78 78 77 77 77 74 75 76 78 84 78 73 77 78 90 99 100 99 84 87 92 92 90 97 100 93 92
35 39 40 44 43 54 71 73 75 75 76 77 81 83 84 84 84 83 84 85 86 84 81 74 85 100 98 98 98 99 100 99 93 98 100 100 93 87
36 39 39 43 49 71 78 77 76 80 82 83 82 83 86 86 89 88 87 88 86 88 88 89 98 100 100 99 90 97 100 100 91 89 84 91 98 82
40 39 41 47 57 77 79 81 83 83 83 84 86 86 87 91 91 90 89 90 92 92 90 95 98 100 100 100 100 93 86 86 90 93 87 84 91 92
44 42 42 47 54 74 79 79 81 79 79 81 84 86 88 92 93 94 93 95 98 99 96 85 81 84 95 91 100 97 91 91 96 100 95 98 93 91
46 42 38 41 45 62 75 79 80 79 77 82 88 93 95 98 99 99 98 99 98 98 94 85 79 87 100 100 99 97 93 87 95 96 98 98 95 100
44 42 38 38 42 48 62 72 75 76 77 84 94 96 99 100 100 99 99 99 99 97 94 90 91 94 100 98 99 100 93 87 91 100 99 94 94 92

GFSNE_850_rhum_054.txt.gz
RH
93 97 100 100 100 98 96 92 90 88 83 84 96 98 100 88 59 72 80 82 66 73 92 66 70 74 93 93 82 50 24 19 18 37 61 91 97 96
98 100 100 100 100 100 100 100 97 96 100 99 96 92 84 82 93 93 85 74 92 93 89 90 99 99 93 66 30 13 8 9 35 92 94 97 96 95
100 100 100 100 100 100 100 100 100 100 100 98 96 98 99 94 96 95 99 99 98 100 98 97 96 67 33 15 8 9 14 50 82 93 94 96 95 94
100 100 100 100 100 100 100 100 99 99 96 100 98 99 95 97 99 99 100 99 98 94 88 59 38 17 12 23 19 22 49 69 86 97 98 100 100 100
98 100 100 100 100 99 99 99 99 99 99 99 100 99 98 98 98 99 96 94 86 61 30 34 20 18 16 15 32 56 65 75 86 97 98 98 99 100
98 99 99 99 100 100 100 100 100 100 100 100 100 100 100 100 97 72 41 36 32 32 36 24 18 24 24 40 48 59 58 59 89 98 99 98 98 100
100 100 98 98 99 100 100 100 100 100 98 96 92 94 84 51 45 52 51 54 36 34 35 15 37 42 45 47 48 50 53 80 97 97 100 100 100 100
99 100 94 100 100 100 100 100 98 100 96 86 53 34 45 56 66 70 66 56 41 30 43 30 54 46 46 49 50 51 58 68 90 98 100 100 100 100
100 100 99 99 99 100 96 82 44 30 27 33 42 46 48 76 77 71 71 66 47 42 63 46 55 48 51 51 53 57 58 57 56 58 60 81 98 100
99 97 91 74 44 31 30 28 28 27 31 38 32 33 46 54 62 56 50 42 36 53 68 56 52 53 52 50 52 53 55 57 59 59 64 83 100 100
24 23 27 24 21 16 17 26 42 58 74 63 52 43 40 38 36 36 33 44 56 54 59 65 57 62 55 49 51 51 51 60 64 63 63 89 100 100
19 18 21 22 20 19 24 39 60 68 60 54 45 45 42 37 46 64 64 63 68 66 68 75 73 82 78 53 55 54 54 58 56 62 65 64 76 100
25 27 23 26 24 24 23 26 39 41 36 31 40 36 48 61 63 65 66 69 70 73 69 91 73 77 91 85 54 47 58 58 57 54 58 65 66 72
25 33 36 30 26 24 24 26 26 27 27 29 39 60 62 64 65 65 67 71 73 75 75 86 90 82 86 86 77 56 60 59 56 50 56 67 71 74
30 30 31 30 28 28 27 28 28 29 38 60 64 67 69 70 70 70 70 69 68 69 72 77 84 83 94 97 99 81 87 65 60 60 62 72 74 73
33 32 30 30 30 30 32 32 41 60 66 67 69 71 74 76 75 76 75 75 73 65 68 75 82 93 100 100 100 97 77 98 68 67 79 77 70 69
31 30 30 34 35 37 41 58 69 69 69 70 70 73 76 78 79 82 84 85 88 76 71 72 82 96 100 100 97 79 77 82 85 90 89 87 86 82
33 34 35 36 36 40 52 71 75 74 71 73 74 79 80 81 83 82 85 87 86 80 80 80 90 100 100 82 90 84 92 94 86 89 93 95 88 84
37 37 36 35 36 41 56 72 69 72 76 79 81 82 84 88 92 92 93 93 89 90 88 94 100 100 100 100 88 90 100 88 76 80 79 79 88 78
39 38 37 35 37 43 56 70 73 74 76 79 80 82 87 93 95 96 96 97 98 98 98 99 100 99 100 100 100 92 72 75 80 89 83 82 83 78
40 41 41 38 37 43 48 59 71 73 74 75 76 80 86 95 95 96 98 99 100 100 97 89 84 91 100 100 99 95 67 75 86 94 94 100 97 96
42 42 41 40 38 38 43 46 55 66 71 74 76 79 88 99 100 99 98 98 96 96 94 88 86 91 100 100 100 99 82 83 88 88 85 91 89 100
41 42 42 41 41 40 41 44 48 52 59 67 75 81 92 100 99 98 98 98 98 97 96 94 92 93 88 96 100 100 100 98 88 91 93 87 78 71

GFSNE_850_rhum_057.txt.gz
RH
95 95 96 98 98 99 100 100 100 99 95 94 89 85 76 72 81 89 98 93 97 95 97 96 92 86 93 79 83 98 94 81 56 32 42 64 95 94
96 88 90 90 96 99 99 100 100 100 100 100 92 84 81 88 97 97 99 100 99 100 99 96 99 100 99 99 100 90 65 51 38 57 74 95 95 96
98 99 96 100 100 100 100 100 99 94 100 99 100 99 99 95 100 100 97 100 100 100 97 100 100 100 100 96 67 52 52 63 56 72 85 95 96 95
97 100 98 100 99 98 100 99 99 100 100 100 98 96 100 97 100 100 100 98 100 99 99 99 98 93 68 54 67 47 46 34 61 96 99 100 100 100
98 98 100 100 100 99 100 100 99 98 97 100 100 100 100 100 100 100 98 98 99 99 98 89 62 61 44 29 27 38 65 79 93 98 98 99 100 99
100 99 99 100 100 99 100 100 99 99 99 100 100 100 100 99 100 100 100 98 80 52 51 41 41 32 21 27 36 46 46 46 52 80 92 98 97 99
100 100 99 99 100 100 100 100 100 100 100 99 98 98 99 99 91 71 59 53 45 52 41 28 24 25 39 47 48 49 49 50 55 81 95 96 98 100
99 99 99 98 99 100 100 99 99 100 99 99 92 76 66 66 63 62 62 70 63 55 31 22 38 44 49 50 50 51 52 54 56 76 89 94 100 100
96 97 98 98 100 99 97 90 66 40 32 30 36 42 48 51 55 66 77 72 60 36 39 36 48 46 52 51 54 55 56 54 55 56 58 80 100 100
83 78 68 56 40 30 28 24 21 22 23 24 29 40 46 56 60 60 51 38 29 27 54 52 48 49 53 53 51 51 52 54 58 60 60 64 77 97
17 16 15 15 14 12 12 16 24 36 42 50 63 56 47 46 47 38 31 34 45 56 59 64 62 56 51 49 53 56 53 53 60 59 57 58 69 96
13 15 17 17 19 24 26 33 42 52 58 61 52 39 40 39 39 47 60 65 72 70 72 72 70 67 58 49 52 54 51 50 60 62 60 58 56 69
18 21 25 28 28 26 26 27 34 44 31 31 28 37 39 57 68 74 76 74 74 80 79 81 69 76 88 71 49 48 42 50 57 57 57 56 64 71
22 26 29 30 30 28 27 27 29 29 29 29 34 53 67 69 69 69 72 71 71 71 72 83 81 81 94 99 79 46 46 50 57 56 58 60 66 72
25 28 30 29 29 29 29 29 29 30 34 52 66 68 69 69 70 71 71 70 69 68 71 78 85 87 97 94 90 56 62 51 54 60 62 66 67 66
27 27 28 29 31 31 32 36 42 58 68 68 68 69 71 71 73 74 74 74 73 67 71 76 82 92 98 97 99 68 65 86 59 59 70 69 68 67
28 30 31 32 32 34 38 45 63 73 73 72 72 71 74 75 75 77 80 80 81 78 72 73 80 92 100 100 99 78 71 71 71 68 75 77 71 68
34 34 34 34 33 35 38 47 67 74 72 71 73 76 78 78 79 80 83 85 86 84 84 83 84 88 93 90 89 75 78 82 72 76 81 83 77 67
34 36 38 38 36 36 41 46 56 69 71 73 75 76 78 78 80 82 86 91 90 90 87 88 93 100 100 100 80 87 91 83 82 77 74 78 83 75
38 39 39 40 38 37 39 44 45 61 70 73 74 75 76 78 80 86 92 95 94 91 89 88 90 93 100 100 100 83 78 86 76 76 71 75 81 80
36 38 43 42 41 40 39 41 45 46 55 66 70 72 74 78 80 90 94 96 100 99 96 88 86 92 100 100 98 78 68 62 74 82 79 94 98 99
35 37 39 40 41 41 40 39 40 43 45 49 54 60 67 75 80 93 97 96 94 96 94 89 86 90 93 97 94 92 75 67 66 67 78 87 96 100
33 34 34 37 39 39 39 39 39 39 43 47 52 58 66 76 88 99 97 96 96 96 94 92 93 94 92 100 100 100 87 81 82 82 77 82 90 81

GFSNE_850_rhum_063.txt.gz
RH
100 100 92 82 80 91 87 98 99 99 98 80 94 79 78 79 86 100 98 93 99 99 100 98 100 100 100 100 100 98 99 99 98 98 99 99 99 98
81 81 79 70 91 99 98 100 91 99 100 99 96 94 92 96 96 99 97 100 100 100 100 100 100 100 100 99 100 100 99 99 98 98 98 98 99 98
68 66 74 92 95 96 94 91 95 97 100 98 99 100 99 100 100 99 100 100 99 100 99 100 100 100 100 99 100 100 100 98 98 98 98 99 98 99
88 98 96 96 93 96 94 93 93 99 99 100 100 98 98 98 98 99 100 99 100 100 99 100 99 98 98 98 100 100 100 99 99 97 79 83 95 97
98 98 96 92 95 94 94 96 91 88 90 95 97 99 100 100 100 98 100 98 99 100 100 100 99 98 99 100 99 100 100 91 63 75 81 84 90 96
98 96 99 99 96 98 96 93 92 94 93 93 97 99 99 99 100 100 100 99 99 99 100 98 96 93 88 83 71 48 40 31 28 31 38 48 62 85
97 98 98 98 97 97 96 97 97 96 96 98 100 98 98 99 100 100 99 100 99 89 76 61 51 43 38 33 25 21 23 27 34 40 44 55 98 100
90 91 93 94 94 95 96 95 93 93 92 93 93 96 95 94 87 80 72 63 54 48 38 32 32 25 22 17 16 20 32 42 44 46 51 72 87 96
44 52 56 58 61 56 46 29 26 24 23 23 26 30 34 37 39 37 44 49 52 46 37 19 19 14 22 30 40 44 45 48 51 54 55 54 66 77
9 10 10 10 11 10 11 13 16 20 24 28 32 33 32 30 32 33 33 34 35 33 32 21 25 44 51 50 50 50 53 57 58 54 49 46 47 50
10 11 12 15 19 16 17 19 22 29 45 50 54 56 54 56 60 50 49 46 34 32 49 58 50 49 51 51 51 51 52 54 56 55 53 47 45 52
12 14 17 19 21 22 20 21 22 23 30 41 50 51 50 42 47 56 53 54 67 62 63 68 64 61 52 48 49 58 59 56 56 58 49 48 53 55
14 17 20 23 24 26 27 25 24 23 26 27 26 27 31 41 46 59 70 74 73 72 71 73 73 73 68 56 53 63 63 58 60 58 55 56 56 60
16 18 20 23 26 25 26 27 28 28 29 27 30 34 45 62 67 69 70 70 70 70 72 79 89 83 91 73 64 47 52 51 55 54 57 57 63 65
18 20 24 26 26 27 30 30 29 33 34 39 46 63 68 68 70 71 71 69 69 70 75 80 88 93 100 88 72 59 63 49 54 51 56 62 64 63
21 24 26 27 28 29 30 31 35 42 51 61 70 71 70 69 67 68 69 70 69 71 86 90 91 95 98 96 98 69 69 74 60 62 61 60 61 62
20 25 27 28 29 31 31 32 35 42 50 63 70 69 69 73 73 76 76 77 77 74 74 85 92 94 94 93 90 78 74 74 70 66 68 64 58 56
22 25 25 26 29 30 30 30 32 37 41 46 55 70 72 74 72 74 78 80 78 76 79 83 87 91 89 80 82 77 78 77 74 76 78 82 70 61
23 24 23 26 28 30 32 33 31 32 34 38 41 54 66 70 73 72 72 73 74 76 74 79 86 91 97 95 82 84 86 80 79 76 75 74 73 54
19 19 22 24 27 30 33 35 35 34 33 34 37 40 42 48 52 57 59 63 65 69 70 75 83 94 97 97 100 76 77 79 79 79 73 71 68 63
17 18 20 23 25 28 31 33 34 34 34 33 34 36 39 44 45 49 53 58 67 76 83 85 87 96 95 97 94 78 76 80 80 79 78 81 72 66
18 18 20 21 24 25 27 29 30 32 32 34 36 38 42 48 51 58 70 83 91 95 92 88 88 92 95 96 92 88 75 69 71 74 76 78 84 97
22 23 24 25 26 26 28 30 32 35 39 45 52 61 75 89 96 96 96 96 96 96 94 90 91 94 93 95 94 86 80 76 75 73 67 67 68 70

GFSNE_850_rhum_066.txt.gz
RH
98 97 97 94 96 92 81 82 95 100 98 97 100 84 95 96 89 90 90 88 88 99 99 99 98 99 99 99 100 99 100 100 100 97 98 98 98 98
95 98 96 88 79 82 90 97 93 97 95 97 99 96 96 98 99 93 90 86 86 95 99 97 100 100 100 100 100 100 100 98 98 98 99 99 99 99
73 74 79 83 90 94 93 90 88 90 94 95 89 98 99 100 99 96 97 95 97 97 99 98 99 100 98 99 100 100 98 99 99 100 99 98 98 98
86 90 97 94 93 94 89 91 91 90 89 87 88 89 91 92 90 97 100 99 98 100 100 98 99 99 100 99 99 99 99 100 100 98 97 98 98 97
98 98 97 97 92 90 92 88 86 90 86 86 87 85 90 97 96 98 99 99 99 99 99 98 99 100 100 100 100 99 100 99 97 97 95 64 58 77
98 98 96 98 95 93 96 94 93 93 92 90 97 98 99 99 99 99 99 100 99 98 99 98 99 98 98 97 97 99 98 93 72 40 24 22 25 43
98 97 95 95 88 89 90 90 90 89 88 89 91 94 95 98 99 99 99 99 99 96 91 86 80 72 62 52 43 37 34 33 26 22 22 32 41 76
85 83 86 86 79 74 72 69 67 65 60 60 62 64 56 59 63 63 62 60 56 50 44 39 36 32 29 23 21 21 19 19 22 34 42 66 100 100
8 8 9 9 9 11 10 10 10 10 11 13 15 18 23 28 38 39 41 42 42 41 37 21 24 20 16 15 20 27 36 42 46 50 54 62 69 80
8 8 9 10 10 10 11 12 13 15 16 19 22 27 29 34 38 39 42 41 36 31 30 25 20 31 44 44 44 46 48 51 54 56 57 55 48 45
10 11 11 13 15 12 13 14 16 18 21 24 26 33 41 49 46 33 30 33 22 23 35 45 44 44 44 47 47 49 50 52 52 55 56 55 54 51
11 13 15 16 16 16 16 17 18 20 23 27 31 29 27 29 31 33 32 34 49 55 58 60 57 54 49 46 48 50 50 55 58 58 58 56 53 45
12 14 16 17 18 18 20 22 24 22 26 26 25 25 27 32 35 41 56 63 65 67 68 70 69 66 66 55 47 53 58 62 63 58 55 56 57 52
13 14 15 15 17 20 22 24 25 24 27 27 28 30 36 52 63 65 66 66 67 66 68 74 79 77 84 77 61 48 52 57 60 56 58 57 58 57
14 14 17 19 20 22 25 25 25 27 32 37 41 54 63 66 67 67 67 64 64 68 72 78 79 80 84 80 76 62 67 55 58 54 55 56 56 60
13 15 18 19 21 23 24 26 26 29 34 40 49 60 66 66 63 63 63 65 63 65 79 88 89 92 88 84 84 70 72 81 70 70 72 66 62 59
11 16 17 18 19 22 26 28 29 30 33 37 40 44 53 64 65 68 70 70 68 64 66 80 95 96 93 88 84 76 72 72 71 73 77 74 68 65
16 17 16 16 19 22 25 28 31 32 31 32 34 37 38 51 63 69 74 73 71 68 67 70 78 87 87 81 83 78 76 76 75 79 79 81 75 65
18 14 13 15 17 21 24 27 29 31 30 30 30 31 35 37 42 48 52 58 57 58 60 64 72 82 92 92 79 82 83 78 85 86 82 79 80 64
16 14 14 15 16 18 21 24 26 29 31 33 33 34 35 36 38 40 43 48 51 54 58 66 76 92 97 97 96 76 79 82 86 91 88 85 78 69
18 19 18 18 18 19 20 21 23 24 27 29 31 33 35 38 38 43 48 56 69 82 90 88 92 97 96 98 92 75 74 79 82 83 80 78 73 66
20 22 23 24 25 25 25 26 27 29 31 34 38 42 48 57 64 80 92 97 97 98 95 90 90 93 95 96 90 85 75 73 72 74 75 76 80 85
19 24 28 31 36 40 45 48 50 53 58 65 72 79 91 95 98 99 99 99 98 96 95 92 91 91 90 91 89 84 79 74 74 72 65 67 70 70

GFSNE_850_rhum_069.txt.gz
RH
96 100 95 95 94 94 94 94 88 99 96 99 90 98 88 86 90 93 94 92 86 80 75 90 95 100 100 100 98 92 97 98 97 100 100 99 98 98
90 86 90 98 98 96 83 84 91 94 99 96 86 84 89 99 99 91 92 94 91 88 80 89 94 96 92 98 100 100 100 100 98 100 100 98 100 99
78 79 81 79 79 87 90 90 87 87 93 91 85 85 92 93 92 87 90 96 96 97 89 91 83 79 97 98 97 98 98 98 99 100 99 100 100 100
81 86 92 92 92 91 91 87 87 87 89 85 83 86 86 87 90 86 88 92 98 98 100 100 100 99 98 99 99 99 100 98 98 99 100 99 99 99
97 98 96 98 96 89 87 88 87 86 89 83 80 80 83 90 93 93 88 91 95 98 99 100 99 99 99 93 93 98 98 99 98 99 98 97 98 100
98 99 98 98 95 92 95 93 89 89 88 87 87 89 89 90 94 94 94 94 95 97 98 98 98 97 98 99 100 100 99 99 100 100 97 88 59 31
98 98 96 89 84 82 83 84 84 85 86 86 86 86 86 86 85 85 87 88 87 88 90 90 88 89 91 94 93 92 91 87 76 58 42 27 19 21
54 34 19 14 12 9 9 8 8 10 13 16 18 20 22 26 29 32 34 34 34 30 29 30 30 27 25 23 23 23 22 22 21 19 20 25 35 71
6 6 7 8 8 9 9 9 10 10 10 11 14 17 20 22 24 26 29 28 28 28 26 19 19 18 15 14 13 13 14 16 22 28 38 61 83 88
8 9 10 9 10 9 10 12 12 13 16 16 20 22 25 27 29 31 31 27 25 24 24 23 22 31 37 35 36 38 43 46 49 51 52 56 62 57
10 10 11 12 11 9 10 13 15 15 16 17 18 22 28 37 31 32 29 31 29 35 44 56 52 49 49 48 48 50 51 53 54 54 53 54 54 51
11 11 12 12 13 14 14 16 16 18 20 22 22 21 20 21 23 27 31 34 49 60 63 64 60 58 55 56 56 55 54 52 51 54 58 60 57 56
12 12 13 12 13 15 15 19 20 19 21 20 20 20 21 23 27 34 48 59 62 66 68 70 67 66 70 63 52 55 57 56 57 58 60 60 59 59
12 11 12 13 15 18 20 21 22 24 23 25 26 25 27 36 50 57 58 61 62 62 64 67 72 76 79 76 59 55 57 60 61 57 57 57 58 59
13 11 14 16 18 21 21 22 24 23 24 27 30 36 45 56 60 60 59 58 58 61 67 71 74 76 80 80 70 62 64 58 64 61 66 69 65 62
14 15 17 16 15 16 18 20 22 22 22 25 28 31 38 48 56 59 59 59 59 62 74 80 85 84 79 79 79 68 72 75 69 70 72 67 66 66
14 18 17 14 13 14 16 18 20 22 24 23 25 27 29 31 38 53 61 63 62 59 62 75 86 82 78 76 75 71 70 72 71 70 75 72 67 66
16 19 15 14 14 14 16 18 20 23 25 26 26 27 28 29 32 36 38 45 46 49 54 58 61 65 69 65 69 69 73 73 73 75 78 80 74 69
16 18 17 18 17 17 17 18 20 23 24 26 28 30 30 30 32 33 36 39 38 41 45 50 58 71 81 87 74 79 74 73 74 74 77 78 82 75
14 17 20 21 21 21 21 21 21 22 23 25 27 30 32 32 32 34 37 41 46 53 63 75 84 96 98 96 94 72 73 77 81 79 78 78 79 74
14 16 21 24 25 26 27 28 28 28 29 30 31 34 37 40 42 47 56 70 86 92 87 84 91 98 94 94 93 76 76 78 79 80 77 81 74 68
14 15 19 24 27 30 34 39 43 46 50 52 54 58 64 70 77 88 94 94 94 95 91 88 90 94 95 94 92 88 82 78 75 74 76 81 82 90
13 15 17 21 28 34 40 48 54 60 66 69 71 74 82 89 96 98 97 97 96 95 95 92 92 91 89 90 90 86 82 78 78 75 70 70 72 73

GFSNE_850_rhum_072.txt.gz
RH
97 97 98 96 96 98 90 92 91 98 86 92 94 89 84 86 86 81 79 82 86 84 82 78 74 96 98 95 91 100 100 99 92 97 100 99 97 96
95 100 99 99 96 92 92 95 88 85 95 96 90 85 81 86 89 85 84 84 87 88 87 82 88 94 99 95 91 97 98 92 90 94 97 98 95 97
79 88 94 93 92 88 86 86 86 86 93 98 91 82 83 87 87 84 86 86 92 91 92 88 91 92 99 96 93 92 92 93 94 90 91 94 98 98
76 79 81 83 85 88 88 88 86 87 88 89 85 83 82 84 85 89 89 89 88 90 93 98 96 98 99 98 99 100 100 100 96 96 98 98 99 99
84 88 89 90 92 92 88 87 86 88 87 90 88 86 83 85 88 91 92 92 90 93 94 99 99 98 97 96 93 97 96 97 95 92 94 95 100 100
99 98 98 98 98 90 89 91 88 87 85 86 86 88 87 86 85 86 92 89 90 91 92 95 95 96 96 96 93 91 92 93 98 98 93 95 94 94
95 94 95 90 88 85 81 76 74 71 72 74 73 72 70 64 52 42 39 40 42 56 72 78 83 85 86 88 90 94 96 98 99 99 100 99 90 61
76 56 26 10 9 6 6 6 6 6 8 10 12 18 21 19 18 18 20 20 42 23 19 22 18 22 24 27 30 35 40 45 47 45 39 32 24 18
7 7 7 8 7 9 8 8 9 10 10 12 16 16 20 21 23 25 26 26 37 41 16 15 18 14 14 14 13 14 14 15 15 16 16 17 19 36
8 9 9 10 10 8 10 11 12 13 14 14 17 20 22 23 24 26 27 25 38 24 20 23 28 28 33 33 30 33 32 33 32 36 41 54 79 89
10 10 10 10 8 7 9 12 13 14 14 15 15 16 17 20 20 28 43 42 67 64 39 48 52 44 43 43 43 42 43 42 44 45 47 57 81 68
12 12 10 10 8 7 11 12 14 17 18 19 19 17 17 18 20 24 29 32 47 84 55 58 54 58 56 50 48 47 46 45 46 47 50 52 56 58
13 12 11 9 9 10 10 12 13 15 17 17 18 18 19 20 23 26 36 52 58 62 65 62 62 63 76 68 52 53 53 53 52 52 54 57 61 64
14 12 11 10 11 11 11 11 13 15 18 19 21 23 25 29 37 49 54 56 57 58 62 63 66 76 84 76 68 71 63 60 62 61 60 58 57 58
14 12 12 12 12 12 12 12 16 18 20 22 25 28 33 39 47 54 55 54 55 56 60 64 67 69 73 72 67 67 68 64 66 65 71 71 68 67
13 14 16 15 13 12 13 15 17 19 20 23 25 27 27 28 29 34 47 54 55 57 63 68 68 69 69 67 68 64 66 70 66 69 72 68 66 65
12 15 20 18 16 16 16 15 16 17 20 22 23 23 25 28 31 32 31 35 44 51 66 78 69 67 62 64 62 59 60 62 65 70 76 70 66 66
12 17 20 19 19 19 19 18 17 18 19 22 24 25 26 28 30 30 31 33 35 44 51 64 54 51 52 54 57 60 66 70 72 73 72 74 65 63
12 17 17 20 22 23 22 22 22 21 20 21 23 25 26 28 29 30 32 32 32 37 45 50 58 71 83 92 91 84 75 74 76 76 76 84 76 66
14 15 15 18 22 25 26 26 27 27 26 26 26 28 29 30 32 34 37 40 46 54 66 79 87 90 95 94 100 90 83 78 80 84 80 82 78 68
15 13 14 16 20 25 27 30 32 35 37 39 40 41 43 45 48 54 61 70 83 89 88 89 96 97 98 99 97 84 79 80 80 82 80 82 76 67
18 15 14 16 17 22 26 31 36 42 49 54 59 63 66 68 72 78 87 93 94 93 90 88 91 92 92 93 91 87 83 78 76 79 76 77 79 90
21 20 16 14 17 20 24 31 38 45 54 62 68 70 73 76 82 88 94 94 94 93 92 89 90 89 88 90 90 88 80 78 78 77 69 70 74 74

GFSNE_850_rhum_075.txt.gz
RH
74 98 98 100 98 99 96 92 92 94 83 91 94 86 90 89 83 86 82 74 77 78 78 79 79 77 75 89 80 80 90 82 100 100 98 94 91 91
76 98 97 98 95 93 96 94 93 92 96 93 85 89 86 82 84 86 82 78 80 82 87 83 79 81 79 97 98 100 100 96 97 100 96 95 98 97
72 83 99 100 98 92 91 92 88 84 89 96 90 85 81 81 85 84 80 84 83 86 90 89 86 84 82 82 88 92 93 96 100 100 99 95 94 98
81 84 86 88 88 88 89 87 85 87 85 88 82 85 84 81 80 80 86 87 88 88 87 84 91 97 95 93 96 98 98 99 100 100 99 99 99 99
86 87 89 90 90 90 87 89 86 86 87 90 90 89 86 82 82 80 80 83 86 89 91 87 96 100 93 97 95 91 90 96 97 99 99 98 97 99
93 94 93 95 96 93 89 90 90 90 90 91 89 85 83 79 80 79 84 82 73 78 84 87 92 94 91 92 97 97 95 94 95 95 97 97 94 89
95 94 95 92 92 90 84 79 74 72 66 70 70 55 56 45 28 29 24 24 37 23 24 35 44 67 78 82 86 89 91 96 94 95 98 99 93 88
82 71 40 20 12 8 6 6 6 5 6 7 10 19 41 26 22 17 17 16 32 44 22 16 17 16 15 14 18 28 40 54 66 77 84 84 75 60
14 8 7 8 8 9 8 7 7 8 7 8 12 17 22 19 21 22 23 22 25 27 15 13 25 18 18 14 9 10 10 10 11 13 15 17 18 18
8 10 10 11 11 9 8 8 9 9 10 10 11 14 16 16 20 24 23 22 29 54 23 20 37 29 31 36 27 31 29 23 19 16 14 16 20 29
11 12 11 11 10 8 8 11 12 11 12 13 13 13 13 13 16 20 25 30 36 71 41 45 44 37 38 40 40 40 40 41 42 43 44 44 64 87
13 13 12 10 7 7 9 12 14 16 15 15 14 14 14 14 16 18 20 24 31 65 71 58 46 46 42 50 45 46 46 44 45 46 48 50 51 52
14 14 13 10 8 8 8 10 12 12 15 16 16 18 18 19 20 21 25 37 48 53 58 56 53 53 55 50 42 48 47 48 49 49 48 49 51 53
14 15 14 11 9 9 9 8 9 10 13 16 18 20 22 24 23 31 41 49 52 53 56 57 56 60 66 66 51 55 52 51 55 55 55 54 54 55
13 15 12 13 13 13 12 10 10 12 13 14 17 19 20 22 28 29 32 39 46 50 53 55 57 60 62 64 62 59 58 54 58 60 65 66 64 63
14 15 15 17 17 16 16 16 16 15 14 15 17 19 18 18 21 21 22 26 32 38 46 53 57 59 59 60 63 57 58 63 58 62 66 63 62 62
12 13 14 20 20 20 20 21 20 18 16 16 18 19 20 20 21 22 23 24 24 26 33 39 39 45 48 48 47 46 50 54 59 67 86 74 63 63
11 11 15 19 21 21 23 24 24 22 21 20 20 20 21 22 23 24 25 26 28 32 40 50 56 48 50 51 60 67 72 73 75 81 83 80 68 63
11 11 13 17 17 18 23 26 26 27 26 25 24 24 24 25 27 28 30 31 33 37 42 51 61 69 81 79 76 85 79 76 78 80 80 79 79 69
15 15 15 16 15 16 19 26 28 29 30 32 32 32 32 33 34 36 39 43 48 54 61 71 83 92 97 90 91 79 85 85 85 82 79 78 75 72
19 18 18 17 14 15 17 21 26 29 33 37 41 44 47 50 52 54 58 63 70 77 82 85 90 100 100 100 97 78 72 74 77 80 78 79 74 66
25 21 21 20 17 15 16 18 22 27 33 39 44 52 59 63 66 69 72 76 80 87 89 89 91 93 94 96 84 79 74 69 71 76 79 81 92 99
38 28 24 46 65 24 16 17 20 23 32 39 46 55 64 69 75 77 80 83 89 91 92 90 92 95 93 96 91 87 81 75 75 72 66 69 76 77

GFSNE_850_rhum_078.txt.gz
RH
60 70 79 94 90 90 97 96 99 90 88 88 86 88 91 89 82 86 86 83 80 84 83 76 73 76 75 86 94 74 74 78 96 97 100 96 99 100
59 75 85 90 89 94 93 93 86 93 94 97 93 95 92 90 82 86 86 82 83 85 85 84 80 78 77 84 93 99 98 96 92 98 99 99 100 96
64 76 99 99 98 99 93 94 90 91 94 97 99 92 88 83 83 84 82 85 86 86 84 81 84 82 78 74 84 89 91 98 100 100 99 100 98 97
78 78 85 93 97 96 89 88 89 87 90 99 94 88 86 86 86 82 82 86 87 86 86 86 86 94 92 88 87 88 92 93 96 97 98 92 92 93
82 82 86 87 89 91 92 90 88 88 88 89 91 86 84 85 82 79 78 79 75 77 82 86 90 94 96 86 93 96 91 90 94 99 100 99 99 99
88 89 92 93 93 92 91 90 88 85 84 87 85 80 76 68 62 57 60 42 31 28 30 46 69 82 88 87 84 79 85 94 92 91 94 95 95 92
97 99 100 100 100 99 90 87 80 71 66 69 58 48 28 24 20 17 15 12 14 13 23 24 18 24 28 42 68 80 85 79 80 90 95 95 97 96
93 86 78 67 41 37 20 7 6 5 6 8 9 11 18 21 18 16 13 13 16 23 20 19 14 16 18 16 13 11 15 29 54 77 88 94 96 96
59 20 9 8 8 9 9 7 7 7 7 8 9 14 19 15 16 14 15 16 17 16 18 14 14 20 14 15 13 15 12 12 12 12 14 18 25 30
8 9 11 12 13 10 7 8 8 9 10 10 10 13 14 14 16 13 15 17 21 24 26 20 20 23 27 29 28 33 32 32 28 25 20 16 17 18
12 13 13 12 11 6 7 9 10 11 12 11 11 11 11 12 12 12 11 15 18 35 30 40 34 33 33 35 36 35 37 38 39 40 42 43 42 53
14 14 13 11 8 6 7 10 13 14 13 12 11 12 13 13 12 12 14 16 18 34 47 46 40 39 37 36 40 41 42 41 40 42 43 45 48 49
14 15 15 12 9 7 7 10 12 9 11 12 13 14 15 15 16 18 20 25 36 42 43 45 45 43 41 38 38 46 45 46 49 50 49 48 48 48
14 15 15 14 11 11 10 10 8 9 13 13 14 14 14 16 17 24 27 32 35 39 45 47 46 49 52 46 40 46 49 51 51 52 54 55 56 57
12 13 14 13 14 15 16 13 13 17 16 14 12 12 13 15 17 18 18 18 19 29 40 46 48 51 54 56 50 44 42 41 48 54 59 56 57 62
11 12 13 13 14 18 18 20 21 20 19 18 16 14 14 14 16 17 17 18 16 17 19 23 30 41 47 49 49 40 42 47 45 50 55 52 54 56
11 11 12 12 14 19 20 22 24 24 23 20 19 17 17 17 17 18 19 21 20 20 23 26 30 36 38 39 41 44 54 62 70 70 73 64 62 63
10 9 10 11 13 17 18 21 25 26 26 27 25 23 22 21 21 22 23 24 26 28 31 35 40 45 53 55 65 69 70 73 78 81 83 84 70 66
11 11 11 11 12 16 16 16 21 27 28 30 29 30 30 29 28 29 30 32 34 38 42 46 52 60 75 78 69 79 74 76 79 78 82 81 80 72
15 14 14 15 16 17 16 15 15 21 27 30 32 34 36 39 40 42 43 46 49 53 58 65 72 83 96 91 96 74 83 79 82 77 72 74 73 68
19 20 20 20 20 20 17 14 15 16 21 25 30 36 41 46 50 55 59 63 66 68 68 70 80 91 100 100 98 70 69 75 78 76 74 78 71 67
28 30 32 31 26 24 22 21 33 16 18 21 26 35 41 48 53 62 68 71 76 79 79 81 85 93 98 100 88 74 68 68 69 72 76 83 85 100
81 75 75 81 62 44 28 66 92 45 43 21 25 34 41 46 55 64 72 78 82 83 87 89 91 92 90 95 96 85 76 73 74 72 64 69 72 74

GFSNE_850_rhum_081.txt.gz
RH
51 46 53 69 78 92 87 88 100 99 98 96 100 91 92 91 90 82 85 87 82 80 83 79 81 80 78 86 97 76 64 68 84 84 99 93 93 93
55 53 61 82 87 92 94 100 98 100 100 99 95 99 95 93 88 81 85 82 78 84 84 83 81 83 80 79 87 98 90 88 87 96 99 99 99 99
61 62 71 93 96 98 94 94 92 92 95 100 99 100 96 91 84 85 83 77 85 87 87 84 80 76 78 77 81 90 99 99 96 95 100 100 100 98
74 73 75 94 96 99 98 96 94 93 92 96 100 100 94 88 90 88 82 80 77 79 82 89 87 82 81 77 85 83 81 90 98 100 99 99 100 100
82 80 80 86 94 95 93 90 91 88 88 90 96 95 91 91 88 82 77 76 75 69 67 73 77 81 88 89 81 82 85 83 85 94 94 98 99 98
89 92 92 93 95 93 90 90 88 88 89 87 90 92 83 77 65 54 50 39 30 20 18 17 19 34 54 73 85 83 84 81 83 85 90 94 96 98
94 92 99 100 100 99 98 91 89 87 80 77 73 48 29 24 22 17 14 15 11 11 20 21 18 15 12 14 26 57 78 84 85 80 82 84 88 90
97 94 91 93 88 79 81 66 31 10 7 7 7 12 12 18 20 16 13 13 14 18 20 12 11 12 14 13 11 9 10 13 37 76 78 80 87 95
95 79 36 12 9 9 9 8 7 7 6 7 8 12 15 16 16 13 13 12 12 14 18 12 13 16 16 16 17 19 16 11 9 10 11 15 25 37
38 13 10 12 15 14 10 9 9 9 8 8 8 10 11 10 11 11 13 16 16 20 23 17 20 25 28 28 29 30 31 29 28 23 21 16 13 13
10 12 14 16 15 9 8 10 11 11 10 8 8 8 8 8 8 10 10 13 15 20 24 33 31 32 32 32 34 34 36 37 37 37 36 36 40 38
14 14 14 13 11 7 8 12 13 13 12 11 11 12 10 10 11 12 13 14 16 23 36 36 34 36 36 36 39 38 39 38 39 40 40 41 44 43
15 16 17 15 11 8 8 12 14 10 11 13 13 12 12 13 15 16 17 19 26 34 37 39 38 39 39 38 41 40 42 47 46 47 46 47 48 48
15 15 17 16 13 11 11 14 9 9 16 17 16 12 11 11 14 17 19 22 23 26 34 36 38 40 41 36 36 39 44 48 47 47 49 50 52 52
12 14 15 15 13 14 16 16 13 18 21 20 15 13 13 14 14 14 15 16 16 17 19 22 27 34 38 35 33 30 32 36 38 51 52 49 49 53
10 11 12 14 14 14 18 19 22 23 24 23 22 19 17 15 16 15 16 15 15 18 19 19 20 24 30 30 32 33 40 45 48 59 56 53 54 56
12 12 12 12 13 14 18 20 21 25 27 26 25 24 22 20 19 19 19 20 21 22 25 28 29 32 36 40 43 48 57 61 69 68 66 60 63 66
12 10 10 10 11 12 15 18 18 21 26 28 29 27 26 26 25 24 25 26 27 29 32 34 38 43 49 51 59 62 68 67 72 74 77 74 58 63
16 13 12 12 12 12 13 15 15 16 19 25 29 30 30 32 32 32 33 34 35 38 41 44 49 55 63 66 68 77 66 70 71 71 74 74 64 56
19 16 15 15 15 16 16 18 16 15 15 16 24 29 31 35 38 41 44 47 50 53 55 59 64 72 82 84 87 68 76 77 76 75 71 72 68 61
25 22 20 20 21 23 22 21 20 16 16 24 16 21 28 34 39 44 51 56 60 61 62 66 76 84 93 100 89 65 67 76 76 76 74 74 67 60
33 55 61 46 39 34 35 28 28 67 50 92 42 21 24 30 38 44 50 57 64 70 70 73 79 85 97 100 90 79 66 62 73 78 78 81 82 86
96 98 98 97 97 97 96 90 68 93 76 96 90 94 41 29 39 71 49 56 64 70 75 75 81 90 91 96 95 80 70 70 78 73 66 72 73 76

GFSNE_850_rhum_084.txt.gz
RH
49 52 56 49 65 78 97 93 96 98 97 100 100 100 97 95 91 93 88 82 84 80 78 77 74 72 74 74 88 93 68 64 63 66 81 96 82 82
53 55 57 55 72 98 93 94 98 100 98 97 100 99 95 97 98 93 84 82 81 80 85 84 79 74 81 78 88 98 98 90 92 80 70 88 92 92
60 63 64 66 86 100 98 92 97 100 100 100 100 99 98 99 98 88 85 84 80 82 88 85 81 77 71 80 77 92 98 100 90 80 92 98 100 99
68 71 71 75 96 100 99 100 98 93 100 100 100 99 99 99 97 91 88 78 77 74 72 73 74 78 70 76 84 81 88 100 94 100 100 100 100 100
75 79 80 80 86 100 100 100 100 99 99 100 99 100 99 96 92 88 83 77 70 65 48 50 60 65 68 78 82 81 82 81 95 99 97 100 100 100
84 85 88 90 94 98 100 97 95 96 94 92 95 96 85 84 80 73 58 48 30 21 16 15 16 16 19 41 56 80 78 77 79 81 87 89 91 92
97 98 96 99 100 100 100 97 94 94 93 91 85 72 56 40 30 24 20 17 14 14 13 17 19 15 12 11 12 21 57 74 78 74 78 81 84 88
100 99 99 100 99 98 100 99 94 84 59 39 36 30 23 17 20 17 14 12 11 14 20 14 12 12 13 13 10 7 8 9 26 59 78 75 72 74
100 99 85 49 22 12 12 10 8 7 6 8 10 10 14 17 15 12 11 12 12 11 13 15 12 14 17 17 15 18 14 9 8 8 9 17 49 68
99 74 22 12 14 16 15 12 10 10 9 8 9 11 13 13 11 11 12 12 13 14 16 15 17 23 26 28 26 26 27 27 26 22 17 13 10 9
32 11 13 17 18 14 9 10 12 12 11 9 8 8 8 8 8 10 10 10 10 15 20 24 28 32 31 32 34 33 32 32 32 32 32 32 32 31
11 14 14 16 15 11 8 13 15 15 16 14 13 12 12 12 10 11 11 12 12 15 25 34 33 34 34 35 39 37 36 34 36 36 35 36 37 36
14 15 16 16 14 10 8 12 17 16 13 14 16 16 15 14 15 15 14 15 18 24 28 34 34 36 37 37 37 37 39 40 42 41 40 42 43 43
18 18 18 17 16 12 10 12 13 9 14 19 20 17 13 12 13 13 14 17 18 19 19 20 26 32 32 30 34 35 42 41 40 41 44 45 45 45
13 15 16 17 17 13 14 15 16 15 20 22 20 17 16 14 14 14 14 14 13 14 14 14 15 16 20 21 24 26 30 35 34 36 45 45 43 47
12 11 12 13 14 16 17 18 18 21 24 24 23 24 22 22 19 18 16 16 16 17 18 18 18 20 23 25 28 32 39 44 47 51 48 51 54 55
18 16 14 14 14 16 16 19 20 20 23 26 27 27 29 28 25 22 21 20 21 22 24 26 28 30 33 36 38 42 50 55 64 68 65 57 61 67
16 12 12 13 13 14 15 16 20 20 21 24 28 31 33 31 28 27 26 26 26 28 30 32 34 37 42 44 49 54 57 59 65 66 70 66 50 55
19 16 15 14 13 13 13 14 17 22 21 20 24 28 30 31 31 32 33 34 36 36 38 40 43 48 53 57 59 62 58 67 67 69 75 72 59 45
23 21 19 19 17 16 16 17 18 21 20 16 16 20 24 27 31 34 38 41 44 48 51 54 58 63 66 70 74 70 74 73 77 71 68 68 66 58
30 29 28 27 24 22 22 25 26 25 24 20 17 36 78 29 36 30 38 44 49 52 54 60 71 76 77 82 73 64 70 78 82 74 68 74 68 57
34 37 73 71 36 73 83 49 37 36 30 28 51 92 96 88 35 30 35 43 50 56 56 60 71 80 85 86 80 76 73 73 74 73 80 85 80 77
91 77 82 93 98 98 98 98 98 97 92 85 76 95 96 96 96 96 61 44 94 83 68 63 68 81 86 94 94 84 80 74 70 65 68 79 78 78

GFSNE_850_rhum_087.txt.gz
RH
48 50 53 59 64 62 76 99 100 99 91 98 100 97 100 99 98 94 96 95 85 76 73 76 76 71 73 72 74 76 80 71 60 60 56 65 86 84
54 56 56 58 62 65 79 99 97 100 98 96 99 100 100 100 95 96 98 90 81 75 77 80 84 78 71 75 80 88 100 90 78 66 59 67 86 86
59 63 66 68 72 73 100 98 100 100 100 100 100 100 100 99 98 99 96 86 80 73 72 82 81 75 67 70 77 90 97 99 96 76 68 71 96 96
66 71 73 74 74 88 100 98 99 96 97 98 100 100 100 99 98 100 94 88 84 74 68 68 62 54 60 66 82 81 93 99 99 99 100 95 100 98
76 83 85 82 86 96 100 98 98 98 100 98 99 100 99 99 100 99 94 87 78 69 62 44 37 28 39 60 72 81 81 87 93 99 99 100 100 99
80 87 92 95 95 99 100 98 100 100 100 100 98 98 98 100 91 91 83 73 48 29 19 17 14 12 13 20 38 59 80 76 80 81 100 100 99 98
90 98 97 99 100 99 99 98 100 100 100 99 100 98 90 75 66 56 36 23 17 14 12 14 18 16 14 12 11 12 32 73 71 77 80 83 89 91
98 98 99 98 98 99 99 97 98 95 99 97 92 81 59 40 30 22 22 17 14 13 14 17 14 12 12 12 10 8 8 9 33 65 73 71 80 80
99 99 100 96 65 38 23 41 44 32 18 13 17 20 23 19 21 19 16 14 12 12 13 15 15 14 14 13 12 14 11 8 7 7 9 24 60 72
98 99 96 39 15 15 16 16 12 11 10 9 11 12 15 15 17 14 13 12 13 14 16 19 15 17 19 21 20 21 24 23 21 16 12 9 7 6
100 97 33 15 20 21 16 12 13 13 12 9 9 9 9 9 8 9 9 10 10 13 19 21 23 26 27 28 27 26 26 28 28 27 28 28 27 26
39 14 14 18 21 18 10 13 18 16 16 16 14 13 12 12 9 10 10 11 11 12 15 24 31 32 30 30 32 33 32 30 30 30 31 32 31 31
13 16 18 19 17 14 10 12 18 19 18 14 18 18 18 16 15 14 14 14 14 17 24 30 29 33 34 33 33 34 34 35 35 34 34 35 36 36
16 19 21 22 20 16 12 11 12 15 13 17 21 21 18 15 12 12 12 13 14 15 14 17 20 23 28 30 35 31 32 35 36 34 32 34 36 38
17 20 21 20 21 19 13 13 14 15 16 20 23 20 19 19 17 17 15 14 12 12 12 12 13 14 15 17 21 26 30 31 30 30 31 32 33 37
14 13 14 15 16 17 16 18 18 18 19 23 24 23 24 24 25 24 23 21 19 16 16 16 18 18 20 23 26 30 35 38 41 41 40 42 47 50
24 18 14 13 13 14 16 17 18 21 21 23 26 26 26 28 29 36 29 25 24 21 21 22 24 27 30 32 34 38 45 48 54 53 50 48 55 59
24 16 13 15 14 15 14 15 16 17 21 23 25 28 28 30 31 29 29 28 28 27 27 28 30 32 36 38 42 45 52 56 61 59 59 51 40 54
20 16 15 15 14 14 14 14 14 15 22 23 21 21 26 29 33 33 32 32 33 34 35 36 37 40 44 49 50 52 56 64 62 68 74 68 46 39
22 21 19 20 20 20 20 18 17 18 20 20 21 20 20 24 28 29 31 34 39 39 41 45 50 55 58 61 64 60 64 68 73 68 68 67 56 41
28 24 23 26 28 29 28 25 24 23 26 27 25 24 21 22 31 65 57 93 85 42 43 49 61 69 69 73 66 58 66 78 82 79 71 66 55 43
39 34 30 32 35 41 72 37 31 31 37 32 33 32 32 57 87 96 96 94 66 40 44 53 94 95 84 77 71 70 70 79 88 87 76 72 69 67
98 91 74 53 45 54 91 97 98 98 98 98 96 83 81 91 95 96 96 96 94 94 92 92 96 95 92 85 76 72 74 80 87 81 71 75 75 78

GFSNE_850_rhum_090.txt.gz
RH
52 52 52 54 59 64 72 74 87 99 90 92 90 96 98 100 100 99 97 92 97 91 77 72 75 79 73 72 74 86 85 79 57 57 52 52 63 82
55 58 61 60 61 66 75 81 91 99 100 96 89 88 98 96 99 100 99 98 99 87 77 77 80 78 76 74 73 86 98 98 61 56 52 54 59 83
61 62 65 67 71 76 80 91 99 99 100 100 96 96 99 100 100 100 96 100 95 84 73 72 75 78 70 64 69 74 90 99 99 94 74 64 70 91
64 67 70 71 71 72 79 98 99 99 100 100 94 100 100 100 100 97 98 100 92 88 75 70 62 57 56 57 65 70 88 98 96 96 99 96 86 95
68 72 77 82 79 83 90 98 99 98 99 99 98 100 100 100 99 99 100 100 92 81 73 62 36 20 22 42 54 72 80 90 93 97 100 99 98 99
73 79 82 86 91 94 98 100 97 98 100 99 99 100 100 100 99 100 98 94 86 71 41 24 18 13 13 14 16 38 71 77 88 88 98 100 100 100
78 90 99 100 100 99 98 98 99 99 99 100 100 100 98 99 98 82 84 70 44 27 17 16 16 20 18 14 10 10 19 62 73 78 80 94 98 99
99 99 98 99 98 98 98 96 95 99 100 100 100 100 98 89 59 51 37 26 22 14 12 16 20 16 14 13 11 8 8 10 38 67 70 79 80 83
99 99 99 99 98 76 45 40 78 90 91 85 80 50 44 39 28 24 20 18 16 15 13 13 16 18 17 16 12 14 13 8 7 8 22 48 62 64
99 99 98 99 56 16 15 18 16 12 11 9 12 13 14 14 15 16 15 13 13 14 15 16 17 16 19 20 20 22 24 21 17 10 7 7 7 7
99 99 100 78 19 21 22 17 15 14 13 11 11 12 10 10 9 9 11 10 10 10 14 18 18 22 26 28 28 28 26 25 25 25 24 23 22 21
100 94 60 17 21 23 20 13 16 18 19 18 14 11 10 11 9 9 10 10 9 9 10 15 22 30 30 30 32 33 30 30 27 28 29 28 26 27
45 20 15 20 19 17 15 11 17 22 22 21 18 19 19 19 18 17 15 13 12 11 14 20 24 25 30 32 30 31 33 31 30 28 29 28 30 30
12 14 18 20 19 20 16 12 12 18 22 18 20 22 22 20 16 15 15 14 12 12 11 12 13 15 18 22 29 27 27 27 27 27 28 27 27 29
12 16 22 22 21 20 19 14 13 15 16 16 20 22 20 17 18 18 17 16 16 20 43 34 12 12 13 14 16 20 21 23 23 25 26 27 28 30
14 16 20 20 20 21 20 17 17 19 19 18 21 24 22 22 22 23 24 24 28 22 19 18 18 18 19 20 22 24 27 30 34 35 35 35 38 40
23 19 18 15 14 15 16 18 19 19 19 21 22 24 25 25 26 28 29 33 28 25 23 22 24 25 26 29 30 34 37 39 42 43 42 41 48 50
32 27 25 25 21 20 19 19 19 19 19 22 23 23 25 27 28 30 38 31 29 28 28 27 28 30 32 34 37 40 46 50 55 54 53 49 43 55
30 23 21 20 17 18 19 19 16 16 19 17 19 22 24 24 27 29 32 36 34 32 34 34 36 38 39 43 45 47 50 57 60 64 66 63 52 44
25 21 17 18 18 19 20 20 19 18 18 18 18 20 24 24 23 21 26 30 31 34 43 59 78 62 49 52 53 51 62 67 68 69 71 73 64 52
36 24 24 23 23 26 29 30 29 26 25 22 21 24 25 27 24 21 21 28 58 71 93 95 96 75 59 60 69 69 88 93 72 73 77 78 70 56
96 91 73 34 34 32 34 38 37 40 36 29 26 28 39 42 33 33 28 60 93 95 94 92 57 55 57 84 86 83 91 95 94 84 82 80 78 69
98 99 98 98 70 47 44 46 47 63 97 97 80 97 98 83 62 61 73 94 96 96 97 93 76 84 93 96 95 90 92 95 94 81 75 84 84 77

GFSNE_850_rhum_093.txt.gz
RH
54 49 47 49 55 58 72 79 89 97 95 85 95 89 92 88 95 100 99 98 94 95 94 87 72 79 78 73 74 81 75 75 66 54 46 43 56 72
50 46 51 54 56 60 67 75 81 94 96 99 92 90 85 88 97 100 100 96 100 99 96 81 68 81 77 77 76 80 83 76 88 64 43 45 48 66
46 48 54 59 63 71 76 81 85 94 97 99 99 97 90 95 98 100 100 100 99 99 94 80 66 66 66 60 63 75 86 81 99 100 65 52 56 55
49 52 58 64 69 69 71 72 89 99 100 98 100 100 97 97 100 100 100 99 100 99 94 82 68 59 59 49 50 61 82 82 98 100 98 82 75 78
54 58 62 70 72 73 74 83 99 99 99 98 97 95 94 100 100 100 99 99 99 99 93 81 64 33 19 18 29 51 78 89 93 99 97 99 100 100
56 60 67 73 77 83 95 100 100 99 100 100 98 97 99 100 100 100 100 99 100 98 88 66 30 16 13 12 12 21 57 82 95 96 100 100 97 99
58 60 72 89 98 97 99 98 99 99 99 98 98 100 100 99 99 100 100 94 91 81 42 25 19 17 18 15 12 11 13 52 78 86 95 100 100 100
61 79 95 98 98 98 98 97 93 94 95 96 98 99 99 99 100 92 58 58 36 20 18 17 18 20 16 14 12 10 9 11 44 72 79 81 94 98
81 98 98 99 99 99 77 49 62 89 90 94 97 99 96 84 61 52 30 22 20 18 15 14 14 15 18 18 13 13 12 8 9 17 56 66 75 78
99 99 99 98 100 67 17 15 15 14 16 19 19 20 22 27 21 20 21 14 13 13 13 15 15 15 17 20 21 21 22 20 15 8 7 9 16 36
99 98 98 99 94 31 18 20 18 15 14 13 12 11 12 15 14 14 12 11 10 10 13 17 18 19 20 24 26 26 26 26 26 26 25 20 15 11
98 97 100 97 42 15 21 19 15 16 18 17 13 10 9 10 9 9 10 10 9 10 11 16 16 24 27 28 29 29 31 29 30 30 29 27 26 25
100 95 68 29 17 17 18 18 14 19 20 22 20 19 19 19 19 18 16 14 12 11 13 16 22 24 24 26 28 29 31 31 29 29 29 30 28 29
89 39 14 16 20 20 18 16 12 14 21 24 21 22 23 24 23 20 18 18 15 17 17 22 18 15 16 16 19 23 27 28 28 27 28 28 26 26
62 21 13 18 23 22 22 19 15 13 16 21 18 22 24 22 19 21 22 20 22 24 30 49 46 21 15 14 14 16 19 22 22 23 24 25 26 26
70 18 16 22 27 26 24 23 19 17 18 20 19 21 24 22 22 24 25 26 30 34 30 25 21 21 21 21 22 23 24 25 27 29 30 31 32 32
92 35 19 18 20 20 20 23 21 21 21 21 21 22 24 25 24 26 28 30 43 35 30 29 28 28 28 29 29 31 32 33 35 35 35 35 39 40
96 45 24 21 19 19 16 18 19 19 20 21 24 26 24 25 27 28 28 31 39 34 34 34 35 34 34 35 37 39 41 42 44 44 44 42 42 47
97 64 31 26 25 23 25 26 21 20 21 21 21 20 25 25 25 26 27 30 33 39 39 34 38 44 39 41 43 44 48 60 53 53 55 54 49 50
92 72 71 26 22 21 21 21 23 23 21 19 18 18 18 22 24 22 22 22 24 26 32 34 42 85 92 89 69 55 73 65 88 86 67 62 57 55
97 92 98 37 20 22 24 24 26 26 25 24 21 20 20 21 23 25 25 25 28 23 25 48 82 96 92 88 75 68 64 78 84 95 88 73 65 57
99 98 98 95 37 42 32 30 33 35 34 33 32 31 30 28 30 33 49 47 34 29 38 88 96 96 88 70 59 58 72 87 89 94 92 90 80 72
100 99 98 99 99 99 74 59 46 40 40 41 46 70 97 50 37 90 91 55 46 48 89 97 97 97 91 81 83 89 89 90 90 90 90 89 80 72

GFSNE_850_rhum_096.txt.gz
RH
55 55 54 47 45 48 50 60 86 94 79 90 89 78 90 98 99 89 100 99 100 98 94 95 88 82 71 76 73 74 70 84 74 58 53 48 43 52
58 56 51 47 48 50 55 63 72 95 99 96 94 90 87 89 98 98 100 99 100 95 94 95 88 76 67 80 78 78 83 86 76 54 43 45 44 47
55 54 51 50 50 53 60 69 80 93 98 100 99 91 93 93 97 97 100 100 100 100 96 97 90 73 65 63 57 64 77 88 77 93 78 54 49 53
52 52 52 51 53 60 70 77 83 96 98 98 100 99 99 100 99 96 99 100 100 99 99 97 90 73 61 53 48 52 66 87 90 98 95 83 74 65
53 53 53 53 59 66 69 72 78 91 100 99 99 96 96 95 96 99 100 100 99 99 99 97 88 65 29 17 16 23 64 84 89 99 99 92 97 88
55 56 58 58 66 73 73 77 97 99 99 99 100 98 97 98 100 100 100 99 99 99 98 96 78 30 14 12 11 12 32 77 87 95 100 100 99 99
56 58 61 65 72 82 83 89 99 98 98 100 99 99 99 100 99 99 100 100 99 95 90 64 27 17 15 14 12 11 11 38 80 85 100 100 100 100
56 59 68 79 88 99 97 97 95 94 93 95 95 96 99 99 99 99 99 92 82 53 29 19 18 16 16 15 12 10 8 9 40 79 86 99 100 100
57 61 74 95 99 99 99 89 81 87 90 92 94 97 100 99 99 97 75 54 44 25 18 15 12 14 16 15 13 12 10 8 9 28 70 79 83 93
70 76 90 98 98 99 91 34 14 14 32 64 83 93 86 69 59 52 39 27 23 16 15 15 15 16 15 16 19 18 17 15 9 7 9 36 58 71
72 83 98 99 99 100 60 17 20 20 16 14 13 12 14 16 20 21 19 19 18 15 14 16 16 17 18 20 23 23 25 23 23 20 13 9 7 8
77 88 98 98 99 95 29 23 23 18 16 16 13 13 13 12 12 12 13 14 14 12 12 16 16 20 24 26 27 28 30 28 29 28 25 24 22 22
83 96 100 97 88 42 18 23 22 16 18 20 21 18 15 15 16 14 15 15 13 12 14 16 19 19 21 24 26 27 30 32 32 31 29 30 29 27
87 93 89 50 24 17 19 19 18 15 20 23 23 21 21 22 23 23 21 19 17 16 17 24 30 28 18 16 17 18 24 28 31 31 29 28 29 28
95 86 65 20 14 20 21 21 20 15 16 23 26 22 24 24 24 24 23 22 20 28 34 42 55 49 32 20 17 16 17 20 22 24 25 26 26 25
99 95 58 19 18 21 25 26 24 20 18 19 22 20 22 25 24 22 25 26 28 34 41 38 30 26 24 23 23 23 24 24 25 27 27 29 30 31
100 100 72 24 19 23 27 27 25 25 19 20 22 22 21 24 25 24 25 28 30 37 44 35 35 34 32 32 32 31 31 31 32 32 33 34 35 36
99 99 98 54 21 20 22 23 23 23 21 23 23 22 22 23 25 26 26 28 30 34 42 39 40 40 40 45 47 38 38 40 40 41 42 42 41 44
98 99 100 95 43 25 22 20 17 18 22 24 23 23 23 25 25 24 25 27 28 30 36 39 42 38 41 55 65 64 55 46 48 68 63 56 49 49
100 100 99 100 72 36 32 29 29 27 23 23 24 22 21 20 22 23 23 23 25 27 29 28 31 34 39 71 85 82 80 66 77 72 77 82 78 72
100 100 100 98 96 60 32 28 26 25 25 24 23 23 21 20 19 20 23 26 27 26 25 43 31 39 59 85 88 81 78 72 66 73 79 78 80 77
100 100 99 98 98 95 39 27 26 28 27 26 26 27 26 26 25 25 25 28 30 35 54 44 32 47 88 92 88 83 70 60 63 81 86 85 88 88
100 100 100 99 99 99 89 34 36 33 33 33 35 36 36 37 52 81 73 36 40 69 75 51 42 62 95 93 92 87 81 83 88 86 82 83 86 83

GFSNE_850_rhum_099.txt.gz
RH
46 50 53 53 54 50 50 54 67 90 81 79 99 82 79 79 99 99 100 99 98 99 98 97 92 88 83 67 70 76 71 75 79 66 53 52 51 48
58 53 55 57 54 53 54 62 79 85 92 80 83 88 87 87 88 96 100 98 97 86 95 95 93 89 84 59 60 71 72 83 85 74 46 39 44 46
55 58 58 53 51 52 54 62 72 84 91 94 98 98 98 89 90 93 99 99 100 95 93 97 89 91 85 63 54 49 54 72 81 91 99 80 71 48
61 58 53 52 52 55 58 63 67 77 96 99 99 99 98 96 92 94 97 95 99 99 100 97 90 94 83 58 32 24 37 60 78 91 94 97 90 95
56 52 53 56 57 60 63 68 71 72 86 100 100 99 97 91 93 91 92 99 99 100 99 96 95 95 73 25 13 11 11 58 78 91 99 94 95 77
55 55 57 58 60 66 70 73 76 76 90 99 99 98 94 95 95 95 98 99 100 100 98 99 96 83 32 15 12 13 9 35 77 87 100 100 99 99
59 59 61 62 62 66 67 74 78 84 96 98 96 95 94 93 95 99 100 100 100 98 96 90 80 32 18 15 15 11 10 12 64 84 98 100 100 100
61 61 61 63 63 68 75 90 91 91 94 96 93 94 96 95 97 99 100 97 99 64 62 46 24 17 17 15 13 12 9 9 21 74 86 99 100 100
62 60 60 66 72 75 88 96 94 89 88 87 90 91 97 95 98 97 98 99 85 50 31 19 17 14 17 16 15 14 11 8 9 25 74 85 96 100
64 65 66 70 80 90 98 93 78 36 26 71 90 94 97 98 100 90 86 66 41 28 21 15 15 14 16 16 15 16 17 18 10 8 14 56 77 79
68 69 70 75 86 97 99 95 36 16 16 16 17 24 40 47 38 36 32 30 23 16 14 14 14 16 17 17 19 21 21 21 21 19 9 7 15 43
71 72 76 85 94 98 100 85 22 22 20 16 14 13 13 15 18 18 18 18 15 13 12 16 16 16 21 23 24 24 25 26 25 24 24 23 16 10
75 74 77 86 99 100 100 49 24 24 19 17 19 15 13 13 12 11 12 13 14 13 14 15 17 21 22 20 20 21 23 26 28 27 27 26 24 23
77 80 81 88 91 84 56 20 21 25 19 20 22 24 21 19 20 20 19 19 18 17 16 16 28 40 32 31 29 24 16 18 22 26 27 26 25 24
86 91 90 91 73 39 19 18 21 20 20 22 25 25 23 22 24 25 25 23 22 20 30 43 50 55 45 34 27 22 19 19 18 19 20 21 22 24
97 98 95 84 55 22 21 22 22 25 22 19 26 28 26 24 25 25 25 25 24 25 32 42 42 34 32 31 29 28 26 26 25 25 25 25 26 26
100 100 98 95 55 26 23 24 28 30 26 22 20 22 23 22 24 25 24 25 28 28 36 45 40 38 39 40 40 37 35 33 32 32 32 32 32 33
99 100 100 99 87 44 23 23 29 28 29 26 21 23 23 21 21 24 25 25 27 30 32 40 43 42 45 43 43 49 53 41 39 40 41 41 41 43
99 100 100 99 99 90 47 22 22 25 27 28 24 24 24 23 22 22 23 25 27 28 30 32 39 40 45 42 40 47 60 73 66 49 46 61 72 69
100 99 99 100 100 99 97 49 23 22 22 22 23 23 23 21 22 22 23 22 23 25 27 26 28 28 30 34 35 38 64 82 81 69 74 76 74 74
99 100 100 100 99 99 98 83 40 34 34 29 24 25 23 21 19 19 21 23 25 26 25 21 21 30 45 34 37 48 81 80 76 74 67 66 70 72
100 100 99 99 99 99 99 98 55 41 39 34 30 28 27 25 22 20 21 22 23 25 28 30 32 52 55 36 43 78 90 85 77 65 63 68 76 81
99 100 100 99 100 99 99 99 78 41 30 28 27 27 27 30 28 29 29 28 34 47 37 38 43 76 66 48 52 89 93 91 85 81 78 78 79 78

GFSNE_850_rhum_102.txt.gz
RH
94 84 78 58 52 53 54 53 53 60 67 79 86 86 89 84 81 89 98 98 99 98 82 94 92 95 87 80 74 55 69 73 77 78 73 59 53 50
86 79 50 51 53 55 56 52 53 64 79 78 89 92 87 90 91 84 96 100 100 97 90 91 94 90 85 82 74 54 56 68 75 75 62 53 40 45
86 66 55 57 56 59 54 52 54 63 94 94 88 87 96 99 91 89 94 98 100 88 88 89 96 92 86 86 71 50 43 46 62 73 88 89 64 79
89 56 62 60 60 53 52 56 61 73 84 97 100 100 98 97 96 91 90 87 86 97 98 99 95 90 93 89 55 20 13 28 56 77 96 98 93 96
63 66 64 60 53 51 55 58 65 71 80 84 100 100 100 98 96 89 87 86 91 96 99 100 88 87 94 78 22 11 9 13 59 87 99 100 98 86
62 68 61 54 51 54 57 64 68 77 83 82 90 96 99 97 93 89 89 91 92 98 98 92 90 92 83 28 13 11 11 11 49 88 100 100 95 100
70 64 56 53 54 54 57 63 67 70 75 78 92 98 98 94 89 92 93 89 98 98 93 96 83 78 34 19 14 12 10 10 28 78 95 100 100 98
64 58 56 56 55 55 58 68 72 75 96 96 100 98 92 92 92 90 90 96 97 97 78 50 51 24 17 16 14 12 10 8 10 58 85 99 100 100
60 60 59 58 57 59 68 78 82 91 96 96 96 89 90 90 91 95 91 96 98 91 57 31 21 16 13 15 15 14 13 10 8 13 66 87 100 99
65 64 62 62 65 70 80 86 90 93 85 78 76 90 89 91 97 98 99 98 82 68 39 23 16 14 15 16 14 17 19 19 13 7 12 54 84 92
70 68 65 63 67 72 82 93 97 89 48 18 22 68 82 89 95 92 69 60 56 34 21 15 13 14 15 16 18 20 20 20 20 16 7 8 32 67
72 70 68 67 74 86 91 98 99 75 24 18 17 16 15 16 23 26 27 28 22 16 14 14 12 14 18 23 23 22 23 24 23 22 21 16 8 9
76 72 70 73 74 86 97 100 98 54 22 23 18 16 14 15 16 17 18 16 14 13 14 14 14 16 19 17 17 17 20 23 24 25 25 24 22 20
86 82 80 81 81 94 100 100 96 33 24 25 19 20 17 14 14 14 13 14 15 16 15 15 17 28 39 48 45 40 26 16 17 22 26 26 25 24
97 94 92 90 89 96 98 92 62 24 26 25 20 20 23 22 20 21 21 20 20 19 18 18 50 61 53 38 30 28 26 23 19 17 18 20 22 23
100 100 100 98 95 94 89 61 23 23 22 21 20 24 25 25 23 24 26 25 23 23 24 40 43 42 35 35 35 33 32 30 27 25 24 22 21 22
100 99 99 100 99 98 68 34 25 26 26 26 22 19 26 29 25 26 26 26 25 26 26 35 45 40 38 41 43 44 46 44 37 34 33 31 30 30
99 99 99 100 99 99 80 39 32 29 29 29 27 22 23 27 23 25 27 25 24 27 29 33 43 45 42 45 47 42 43 52 58 47 40 40 40 40
98 99 99 99 100 99 96 57 39 27 26 34 33 24 25 28 26 24 25 25 26 26 27 30 34 39 42 44 44 38 42 46 64 72 71 56 46 60
100 98 99 99 100 99 100 94 63 34 29 33 32 32 28 28 28 27 25 24 23 25 26 27 28 29 30 33 31 35 39 39 67 76 77 71 71 72
99 98 99 99 99 100 100 99 98 96 32 27 25 29 29 28 27 26 30 27 26 24 24 21 22 27 26 26 40 55 37 49 79 79 75 75 72 67
99 99 99 99 99 99 99 99 98 98 70 36 30 26 25 26 26 26 28 25 21 20 20 26 31 27 25 29 62 53 39 58 82 82 79 70 66 67
99 99 99 99 99 99 99 99 99 99 92 43 38 36 35 32 29 28 29 30 27 25 26 28 33 33 33 39 73 64 48 58 84 83 82 81 80 78

GFSNE_850_rhum_105.txt.gz
RH
70 76 84 98 97 88 83 71 55 62 61 64 74 77 83 87 86 83 84 90 96 92 98 98 85 80 91 88 79 75 72 48 68 81 89 84 69 55
84 82 92 92 85 64 58 55 57 60 63 64 68 77 88 97 90 86 86 90 98 93 99 94 89 82 83 86 79 78 65 47 55 69 74 71 71 47
94 96 95 86 67 52 55 56 59 56 54 66 72 79 87 89 94 93 89 94 93 96 90 90 91 97 94 86 82 80 49 27 35 52 67 76 74 65
97 98 99 90 56 57 57 60 56 53 57 59 80 92 98 99 100 99 96 92 92 91 87 87 90 95 88 83 90 65 21 10 16 52 89 95 89 90
94 100 99 85 60 62 62 56 52 52 57 68 82 86 99 98 98 98 95 89 89 91 92 96 94 89 82 91 80 18 11 10 13 64 92 91 98 89
100 100 97 74 67 66 60 54 53 58 65 70 86 87 98 99 99 99 93 91 89 85 92 95 95 87 94 81 27 14 10 10 13 72 96 99 98 93
100 97 77 76 72 63 58 57 59 59 67 73 88 92 92 92 98 95 91 88 89 88 89 89 93 94 74 33 15 13 10 9 10 66 90 99 100 100
90 81 78 80 75 66 61 61 56 58 66 69 71 84 94 95 96 90 90 88 94 90 93 94 75 57 22 15 12 10 9 8 8 32 81 99 100 99
89 85 79 70 66 65 60 60 56 58 60 68 78 96 100 89 91 95 89 88 90 97 90 53 26 18 14 14 12 11 11 10 8 10 54 84 100 100
79 75 70 66 65 65 65 62 61 63 66 74 80 75 72 87 91 92 96 96 99 97 77 51 20 16 14 15 12 12 16 18 13 8 11 49 84 99
75 72 70 69 67 65 63 64 67 66 75 82 82 69 66 86 97 99 100 99 97 81 53 32 15 15 16 16 14 14 18 19 19 16 7 10 38 82
77 75 73 71 73 70 65 66 68 72 80 84 59 20 20 63 91 96 100 92 71 52 25 21 14 15 14 16 18 18 20 21 22 21 19 11 8 26
86 83 81 79 76 75 75 70 72 89 91 75 30 19 18 18 18 23 46 37 27 20 15 17 14 14 18 18 16 17 19 21 24 24 24 22 20 12
94 91 89 93 89 85 92 88 95 100 99 63 25 23 20 18 17 18 22 24 18 16 16 16 15 16 18 34 38 43 27 17 17 22 26 26 26 25
98 98 99 100 100 100 100 100 100 99 100 54 26 24 21 22 19 17 18 16 14 16 17 16 16 32 57 53 40 33 28 27 22 18 18 22 24 24
100 99 100 100 100 100 100 99 99 99 90 33 25 27 27 25 22 19 19 19 18 19 19 18 26 56 49 37 36 34 33 32 29 26 22 20 20 22
100 100 100 100 100 99 99 99 99 99 92 34 34 29 26 29 29 24 24 26 25 23 23 22 41 46 41 38 40 44 44 47 47 40 34 30 28 26
100 100 100 99 100 100 99 99 98 98 80 39 38 31 25 26 30 28 26 27 26 25 25 25 33 43 41 40 44 47 42 42 51 57 53 40 38 37
99 100 100 99 99 100 99 99 98 97 96 45 53 39 31 28 35 32 28 28 26 25 26 29 30 39 46 44 44 44 38 40 43 48 64 70 61 45
100 99 99 98 99 99 99 98 98 97 96 59 59 44 36 30 31 28 26 25 26 27 26 27 29 32 34 39 39 36 31 42 41 40 70 73 71 68
100 99 98 98 98 98 99 99 98 98 94 65 50 42 41 37 30 30 30 27 27 26 25 25 25 32 36 36 30 25 37 49 41 54 77 76 73 71
99 98 98 98 98 99 99 99 99 98 96 95 54 40 39 38 33 30 29 29 26 24 24 26 30 29 27 25 24 28 54 55 43 58 79 81 77 69
98 98 98 98 99 98 98 98 98 98 98 98 93 38 30 30 30 30 29 29 28 25 27 30 30 29 29 29 30 32 52 72 49 52 75 86 82 80

GFSNE_850_rhum_108.txt.gz
RH
80 86 86 90 92 89 88 95 82 88 77 62 62 64 74 79 86 84 79 72 76 81 93 92 94 100 88 80 75 78 74 73 70 45 63 78 96 94
85 86 90 97 94 99 96 99 91 79 61 60 61 63 68 80 88 92 82 79 79 82 92 91 96 91 85 78 80 80 76 78 58 34 45 63 69 62
99 95 95 98 98 98 94 88 69 57 58 63 64 64 72 75 82 90 96 90 81 93 92 95 92 87 80 89 84 81 80 73 28 13 37 61 77 84
100 100 99 100 100 100 93 66 55 59 65 63 62 67 78 89 90 95 99 98 94 91 90 90 88 83 92 86 82 83 83 27 12 9 59 94 98 100
100 100 100 100 100 100 95 60 60 63 64 59 64 70 77 81 87 97 98 98 96 90 88 87 89 86 88 83 86 86 38 12 11 16 87 90 87 97
100 100 98 99 100 100 89 69 76 70 63 63 67 70 74 76 84 94 98 98 93 92 95 87 88 89 88 90 88 56 14 12 10 18 86 97 99 94
100 100 100 99 100 89 85 82 90 74 67 69 70 75 72 73 72 83 91 94 92 92 88 86 87 90 93 90 59 15 13 11 9 18 83 100 100 100
90 98 99 100 100 93 84 86 84 76 72 73 65 76 71 67 74 85 94 94 93 89 87 87 93 93 81 54 15 12 11 11 8 10 76 93 98 100
99 97 92 89 88 87 89 88 84 84 82 75 63 68 72 66 93 98 88 88 87 88 91 95 83 35 20 15 13 13 13 14 7 8 56 80 100 100
93 95 98 95 90 86 78 73 73 72 70 69 74 77 78 78 87 88 84 95 96 93 98 96 70 35 17 14 14 13 14 15 14 7 11 50 92 100
92 90 89 88 85 86 88 81 78 78 78 77 79 81 80 72 71 85 92 99 99 97 96 85 52 20 15 15 14 14 16 18 18 13 6 11 53 92
96 95 93 90 88 94 91 88 83 75 75 80 81 84 87 77 71 90 92 100 100 98 81 76 35 18 15 16 16 17 18 20 20 18 17 9 9 43
99 98 98 96 94 95 95 95 88 86 89 89 89 89 76 33 32 81 94 99 98 90 36 37 20 15 15 21 19 20 22 23 22 22 22 21 17 10
98 99 99 100 100 100 100 98 98 99 100 100 96 92 49 24 19 30 65 78 80 52 47 20 18 14 14 17 22 32 27 18 18 18 23 25 23 20
100 99 99 100 100 100 100 100 100 100 100 99 99 96 42 26 24 23 24 30 34 29 29 19 17 18 17 29 52 47 41 33 30 22 18 21 25 24
100 99 100 100 100 100 100 100 99 99 100 100 99 99 47 34 28 28 25 26 27 25 21 19 16 19 31 54 44 34 33 32 33 29 24 21 19 20
98 100 100 100 100 100 99 100 100 100 99 99 99 97 55 42 31 30 24 21 19 18 19 19 18 21 56 50 37 38 39 41 45 46 42 34 29 25
100 100 99 99 100 99 100 99 99 99 99 99 99 98 70 48 37 36 30 26 25 23 23 22 19 26 47 42 39 43 44 42 41 47 53 52 42 37
99 100 98 99 99 99 100 99 99 99 99 98 98 98 95 51 48 44 40 33 31 31 27 26 24 32 39 44 40 44 47 44 40 42 45 57 67 58
99 99 99 99 99 99 98 98 99 99 99 99 98 97 84 48 48 48 43 38 30 30 29 28 27 28 34 43 45 45 45 43 37 44 41 44 66 69
99 99 99 99 99 99 98 99 98 99 100 98 98 96 94 82 55 44 40 44 35 31 28 26 27 34 35 35 36 37 35 34 40 50 41 54 72 71
99 100 99 99 99 99 99 99 98 99 98 98 97 97 94 84 61 45 43 43 31 27 26 28 30 31 31 30 31 30 27 35 52 56 49 61 78 76
97 99 98 99 100 98 99 99 98 98 98 98 98 97 94 71 66 55 43 41 37 31 30 29 29 26 26 29 29 28 26 33 50 62 64 56 72 81

GFSNE_850_rhum_111.txt.gz
RH
85 85 92 93 93 100 94 100 100 98 89 86 84 80 71 68 71 71 75 76 76 74 78 90 93 94 92 91 92 81 77 77 76 72 67 35 42 63
96 98 99 99 99 97 88 96 98 98 86 88 77 67 62 63 65 72 78 83 80 75 71 75 86 90 93 88 84 82 87 81 74 72 36 16 35 50
98 97 97 100 99 97 92 94 100 100 99 95 74 61 62 63 66 72 80 82 78 79 76 85 88 92 90 84 82 83 84 79 77 38 12 20 67 74
100 100 99 100 100 99 98 100 100 100 99 74 65 64 64 61 69 77 82 78 78 83 82 84 88 86 84 82 84 82 82 80 48 12 9 58 85 88
99 100 100 100 100 100 99 99 99 100 92 78 75 70 66 70 71 78 78 79 92 96 90 88 88 86 85 84 82 86 85 61 13 10 12 80 88 88
99 98 98 98 99 98 100 100 100 100 96 92 86 75 78 80 74 84 83 85 88 91 91 88 89 85 85 86 88 89 67 19 11 8 33 86 88 92
94 96 95 99 99 98 99 99 100 100 85 86 98 93 79 79 80 78 83 91 94 91 90 88 91 88 87 91 89 74 28 11 8 7 61 79 91 99
90 97 95 98 100 100 100 99 100 99 99 100 94 94 81 85 91 86 91 87 94 86 86 87 89 88 90 90 74 33 12 11 8 7 49 79 81 100
90 90 93 98 98 98 99 100 100 97 100 94 90 95 88 91 94 88 85 97 88 86 86 90 92 93 88 45 20 13 12 12 10 6 17 74 97 99
96 95 94 91 92 98 97 98 98 97 100 90 100 87 94 79 90 85 94 100 98 95 100 97 90 81 60 27 17 14 12 14 15 7 8 46 81 99
99 99 98 97 95 96 100 97 100 94 94 97 95 100 99 90 88 99 100 100 100 98 98 98 90 70 45 22 15 14 12 16 17 15 7 9 52 88
95 89 92 100 99 100 98 97 98 91 100 96 100 96 96 87 95 93 88 97 100 100 99 99 84 62 24 16 15 16 15 18 20 19 17 8 10 50
99 97 86 85 100 100 100 99 97 98 100 100 97 95 96 91 97 93 89 100 100 99 88 80 80 56 26 16 15 17 20 22 22 22 20 19 12 9
100 100 100 99 100 100 100 99 100 100 100 100 100 100 97 93 87 77 73 100 100 100 100 98 40 34 19 14 19 19 21 23 23 21 22 22 20 18
100 99 99 100 100 100 100 100 99 100 100 100 99 100 100 100 90 36 42 85 100 100 100 91 62 22 15 15 19 43 45 40 34 26 21 18 23 23
80 84 93 100 100 100 100 100 100 99 100 100 100 100 100 98 94 38 32 35 56 54 59 50 39 20 18 17 32 52 42 30 34 33 29 23 21 20
99 92 98 98 99 99 100 100 100 100 99 99 99 99 99 98 97 48 34 36 47 40 38 34 27 18 19 22 48 41 31 34 40 45 44 39 32 26
100 100 99 98 99 98 99 99 99 100 100 99 99 99 98 98 97 65 46 41 38 37 34 28 24 20 20 44 54 36 34 39 41 40 46 50 51 42
100 96 99 99 99 99 99 99 99 99 100 100 99 98 98 98 97 95 95 77 35 31 24 23 23 21 21 44 47 35 40 44 44 41 42 45 50 58
100 100 97 98 98 99 98 98 99 99 99 98 98 99 99 98 97 96 96 52 43 36 32 29 27 23 21 38 42 38 42 47 45 42 40 47 44 55
100 100 100 97 97 98 98 98 98 99 98 98 99 100 98 96 97 97 84 57 56 44 34 31 27 29 28 36 42 45 45 46 46 37 39 48 42 62
100 100 97 96 97 97 98 98 98 99 99 100 100 100 99 97 97 95 63 74 50 49 35 32 32 33 35 34 38 40 39 39 36 35 46 55 55 71
95 100 98 94 95 97 98 99 99 99 99 98 97 98 98 97 97 96 73 59 52 52 40 35 34 33 34 36 36 38 36 31 32 38 49 56 60 62

GFSNE_850_rhum_114.txt.gz
RH
88 90 89 89 93 95 94 92 97 100 98 88 97 96 85 92 96 87 75 73 64 65 65 65 65 72 80 86 89 90 85 81 78 76 74 69 38 20
90 93 90 94 93 94 98 98 100 100 100 89 89 88 94 96 99 79 82 76 74 74 76 73 72 76 83 89 87 90 82 80 77 74 72 35 11 35
100 100 100 100 100 100 100 100 94 100 100 99 100 98 97 97 87 85 88 94 85 88 85 85 81 87 88 88 90 83 80 79 79 74 47 12 17 64
100 100 100 98 99 100 100 100 100 100 100 99 100 100 98 94 92 90 85 98 98 95 88 89 87 88 92 89 85 81 81 81 80 49 11 9 40 73
97 99 99 99 100 99 96 98 98 100 100 100 94 99 92 92 92 99 100 100 99 91 89 90 95 91 88 86 86 86 82 81 61 14 9 24 73 90
84 93 99 98 100 100 100 100 100 100 100 100 100 100 96 90 94 99 93 97 100 91 92 92 95 95 91 89 90 86 86 69 22 10 8 63 90 98
68 74 81 90 96 99 100 98 99 100 100 100 100 97 95 95 92 83 90 97 95 88 94 98 97 93 95 90 89 89 78 42 9 7 8 64 90 93
57 64 77 83 87 96 98 98 100 99 100 100 100 99 96 92 91 92 100 93 88 87 90 90 89 91 92 91 92 88 60 13 9 7 8 72 84 94
72 75 76 86 92 94 94 99 100 100 100 98 100 100 98 100 92 95 100 92 85 87 92 83 90 91 95 93 92 55 15 13 12 8 7 66 84 97
74 83 96 98 97 93 97 96 98 99 99 100 100 96 100 99 99 100 100 99 99 100 99 98 90 92 93 89 54 20 14 13 15 10 6 30 79 96
60 85 90 89 88 90 96 95 94 92 98 100 100 99 100 99 97 100 98 96 100 99 100 100 100 94 91 82 52 22 14 12 17 16 7 8 53 82
78 88 99 99 87 89 100 100 99 97 95 100 99 99 100 100 100 100 93 91 99 100 98 100 100 98 90 58 31 20 15 14 19 18 16 7 10 51
100 99 100 96 95 92 100 100 100 100 100 100 98 100 99 100 100 100 99 100 100 99 99 100 100 100 85 17 19 18 18 18 20 20 19 17 9 9
71 100 100 99 97 93 94 100 100 100 100 100 100 99 99 100 100 100 100 99 100 100 100 98 95 97 84 54 20 18 18 22 26 26 24 21 18 12
85 67 72 84 76 80 88 98 100 100 100 100 100 99 100 100 100 99 99 100 100 100 100 99 99 95 36 32 16 19 22 26 23 19 17 19 22 20
97 89 78 80 79 82 94 96 100 100 100 100 100 100 100 99 99 99 98 98 98 100 100 99 99 98 51 19 18 25 35 36 40 32 30 24 27 21
100 100 100 100 95 100 99 97 97 99 99 100 99 99 99 100 99 99 98 97 95 98 100 100 99 93 42 23 20 41 45 33 34 33 38 37 31 24
100 100 100 100 100 100 99 99 99 99 99 99 99 99 99 99 99 99 98 96 95 68 74 82 72 69 39 28 24 40 33 32 40 44 46 49 48 41
100 100 100 99 100 100 100 99 98 99 99 99 99 99 99 99 98 98 98 97 94 88 81 80 54 47 35 26 29 47 32 35 41 41 43 47 52 54
100 100 100 100 100 100 100 100 99 99 99 99 99 99 99 98 98 97 97 96 92 65 65 45 36 40 29 22 43 53 34 37 43 43 40 40 50 49
100 100 100 100 100 100 100 98 97 98 98 98 98 98 98 98 98 98 97 97 96 97 93 38 26 34 32 28 38 41 36 41 46 46 40 36 50 48
100 100 97 99 99 100 100 100 97 96 98 99 98 98 98 98 98 99 96 96 96 96 62 41 42 34 35 32 41 44 42 41 45 45 42 38 49 53
91 95 97 99 98 99 100 100 99 96 96 97 98 98 98 97 97 97 97 97 97 92 70 50 47 43 36 32 37 43 44 45 46 45 38 42 54 57

GFSNE_850_rhum_117.txt.gz
RH
88 82 76 83 83 78 96 100 100 100 100 98 97 93 85 82 97 100 96 98 98 89 76 74 77 76 75 77 82 90 89 92 89 82 77 71 65 52
92 90 90 84 86 98 99 100 99 100 100 97 97 91 85 92 99 100 99 100 100 98 86 82 86 81 78 77 88 90 87 92 85 82 76 70 61 15
98 97 91 96 99 99 100 100 99 100 100 98 99 98 95 99 97 99 98 98 92 89 92 91 93 92 83 80 87 84 88 87 82 80 77 65 17 12
100 99 98 99 99 100 100 98 99 98 100 100 100 100 100 100 99 100 100 87 88 88 86 97 91 92 88 84 90 89 85 85 84 77 73 16 9 30
85 83 83 86 86 94 97 95 95 96 99 100 100 100 100 100 100 99 99 95 96 89 85 96 86 85 91 87 90 87 86 84 82 75 33 10 21 64
62 66 71 77 84 92 98 96 96 97 98 99 100 99 100 100 100 100 99 89 94 91 88 89 89 96 99 89 90 88 88 87 79 56 12 9 51 88
47 54 61 71 83 90 94 98 98 99 100 100 100 99 100 100 98 96 97 97 100 92 85 92 97 99 99 96 88 92 90 84 72 23 9 9 71 92
40 44 50 55 62 70 84 96 97 96 98 100 100 100 99 98 100 99 100 100 99 94 94 86 93 97 93 90 92 97 87 83 52 10 7 10 73 94
30 31 35 45 57 64 69 86 94 94 89 90 96 98 100 99 100 100 100 98 93 88 90 94 97 93 85 97 89 95 89 72 16 12 9 9 68 83
36 38 40 40 37 71 86 87 88 93 100 100 100 99 96 98 100 100 100 100 100 100 100 100 97 89 89 96 94 98 90 25 14 14 9 8 53 92
38 41 55 78 88 84 90 97 96 85 82 98 100 100 100 100 97 100 100 100 100 100 100 100 100 100 94 95 96 92 56 17 14 18 13 7 21 80
42 44 41 38 86 97 99 97 83 97 99 92 91 98 100 100 100 96 100 100 100 100 100 100 100 100 100 98 94 82 41 16 15 19 16 9 7 40
59 52 50 50 45 43 65 78 88 96 98 99 98 99 99 100 100 100 98 100 100 100 100 100 99 98 96 64 87 65 34 18 18 21 19 16 8 10
75 57 56 57 56 49 52 67 78 96 96 96 99 98 100 100 100 100 100 100 100 100 100 100 100 100 98 78 24 44 25 21 21 24 23 23 18 9
69 67 77 89 75 76 84 97 100 100 100 98 99 98 100 100 100 100 100 99 99 100 99 97 99 98 100 100 80 21 21 22 26 29 29 25 24 19
77 82 73 87 92 92 99 99 99 100 100 99 99 100 99 100 100 99 99 99 99 99 98 99 99 99 85 78 62 22 21 26 29 27 24 25 23 22
100 93 83 89 97 100 100 100 99 99 99 100 99 99 99 99 99 99 99 99 99 99 99 99 99 99 100 73 26 23 24 33 30 30 27 27 28 25
100 100 100 100 100 100 100 100 99 99 99 98 99 100 99 99 99 99 99 98 98 98 98 98 98 98 98 57 28 26 34 32 34 30 30 31 30 27
87 100 100 100 100 100 100 100 100 100 99 99 99 100 100 99 99 99 98 97 97 98 98 98 98 98 98 61 34 31 37 31 33 40 43 45 45 42
94 100 100 100 100 100 100 100 100 98 97 97 100 100 99 99 99 99 97 97 97 96 96 96 96 95 92 59 30 31 34 30 39 42 44 48 50 52
86 92 86 87 95 93 100 100 100 100 100 99 100 100 100 100 100 99 98 97 97 97 96 96 94 94 85 48 34 34 42 31 38 44 41 40 49 51
84 85 81 84 91 93 96 99 97 97 98 99 99 100 100 99 100 100 97 97 96 96 96 96 95 92 65 40 34 47 43 34 42 48 50 42 41 48
84 86 85 86 91 93 96 98 98 97 97 99 98 98 98 98 98 97 97 97 96 96 96 96 90 50 47 39 37 42 38 41 46 48 50 45 43 51

GFSNE_850_rhum_120.txt.gz
RH
88 82 91 88 93 97 94 94 86 100 96 98 100 94 86 86 89 89 89 92 100 100 98 99 84 70 68 92 96 76 79 80 82 85 80 83 76 70
89 97 94 97 99 94 89 91 90 100 100 100 98 93 89 95 92 91 85 92 99 99 99 99 82 83 74 77 67 66 72 83 89 82 80 78 74 70
96 92 95 90 89 94 98 96 100 100 100 99 100 99 97 99 95 98 98 96 100 98 100 100 87 82 79 76 73 69 75 82 86 82 80 75 75 69
100 99 100 100 99 100 100 100 100 100 100 100 99 99 99 98 99 99 100 100 100 100 100 100 100 88 85 80 75 68 74 83 87 82 78 80 74 30
93 92 89 85 85 86 89 90 96 100 100 100 100 100 100 98 99 99 99 100 100 100 100 100 100 97 90 83 72 80 82 89 91 83 81 77 59 12
51 52 55 59 64 67 72 74 77 81 84 90 94 95 97 97 99 99 98 99 99 100 100 100 99 97 93 83 74 76 85 87 89 84 86 72 22 10
33 34 34 36 41 48 60 64 80 94 98 95 89 84 84 82 80 82 99 100 98 100 98 98 98 100 92 88 76 73 81 88 89 86 81 44 10 9
16 16 17 17 20 25 34 61 78 86 98 100 100 100 98 100 96 92 98 100 100 96 100 100 100 92 94 93 93 81 84 90 87 84 79 18 8 13
20 22 22 23 26 39 44 37 52 70 84 90 98 98 100 99 100 99 100 100 99 100 100 100 98 99 100 100 100 97 91 88 97 83 61 13 8 15
27 28 31 33 41 36 47 76 76 85 61 86 94 90 91 98 100 99 100 100 100 100 100 100 99 100 100 100 100 99 100 97 98 80 21 14 8 18
42 45 43 61 68 55 65 61 55 47 63 73 96 85 91 100 100 100 99 100 100 99 100 100 100 100 100 100 100 100 98 99 97 39 16 18 10 10
39 36 36 38 43 48 78 83 81 56 82 70 78 81 89 99 100 100 100 100 100 100 98 100 100 100 100 100 100 100 100 100 83 20 18 20 9 8
28 25 30 34 37 43 51 81 99 100 100 99 96 91 82 80 94 100 100 100 100 99 100 100 100 100 100 99 99 100 100 91 52 17 20 23 14 8
29 40 46 37 30 40 57 71 74 88 100 99 99 98 99 95 99 99 100 100 100 100 100 100 99 100 100 99 94 98 98 88 35 18 23 25 20 11
56 85 95 69 77 75 80 77 69 83 95 98 98 99 100 98 99 98 99 99 99 99 99 99 99 99 100 100 88 29 95 71 31 24 25 27 25 18
57 70 59 54 58 64 70 76 90 98 100 100 99 99 100 99 99 100 99 100 100 99 99 98 98 99 99 99 99 98 45 38 27 27 32 30 27 24
65 48 44 45 52 75 95 100 96 100 98 93 97 99 99 99 99 99 99 98 99 99 98 99 99 98 98 97 97 96 43 31 30 34 34 30 28 25
81 77 84 95 99 100 100 99 91 98 99 98 99 100 99 100 100 99 99 100 98 97 98 98 98 98 98 96 79 31 32 36 36 34 31 31 30 27
64 90 100 100 100 100 100 100 100 89 94 100 100 100 99 98 100 100 100 98 97 97 97 98 98 98 98 97 77 31 40 35 34 30 29 29 28 28
73 100 99 100 97 100 100 100 100 95 95 100 100 100 98 99 99 99 99 99 98 97 97 97 97 97 97 97 88 33 38 33 30 30 34 36 38 39
76 80 86 81 82 87 87 90 94 92 95 100 100 100 99 99 100 100 99 98 97 97 97 97 97 97 97 97 85 35 38 36 45 39 44 46 50 51
72 76 75 78 81 85 87 91 93 90 88 92 100 100 100 100 100 99 98 97 96 96 96 97 97 97 97 97 48 40 42 86 42 48 51 52 53 52
76 80 79 82 85 89 92 95 95 91 90 96 100 100 99 99 99 98 97 97 97 96 96 96 97 99 97 95 90 50 59 94 68 51 54 51 47 48

GFSNE_850_rhum_123.txt.gz
RH
91 100 98 95 92 94 97 98 97 100 97 81 96 83 84 95 92 98 95 92 90 94 100 100 100 100 94 94 82 88 87 92 98 72 67 75 76 73
100 96 93 90 90 96 97 95 99 100 100 98 97 96 98 99 99 99 92 95 98 98 98 100 100 100 98 97 88 81 80 91 78 69 70 73 77 78
100 98 94 88 99 100 99 100 100 100 100 100 100 99 95 87 87 91 90 86 93 91 100 100 100 99 100 100 97 86 81 84 76 75 67 69 79 80
100 100 100 100 100 100 100 100 100 99 100 100 100 100 99 98 95 99 98 95 94 95 98 98 100 100 100 100 100 93 86 83 78 77 73 74 75 72
100 100 100 98 96 89 81 75 71 68 70 80 84 87 86 79 74 78 78 83 83 86 97 93 100 100 99 100 100 99 91 85 79 71 66 75 75 75
52 51 49 48 46 45 45 46 50 49 51 80 99 99 99 98 98 96 84 75 78 78 86 93 99 100 100 100 100 100 100 95 84 80 76 72 80 79
23 22 21 20 19 20 22 23 29 39 52 66 96 93 88 90 96 94 99 98 98 98 92 87 97 100 100 100 100 98 92 100 93 93 83 75 81 72
16 19 19 23 26 38 48 38 29 47 67 96 99 100 99 96 88 94 93 96 100 98 94 97 100 99 100 99 100 100 100 100 99 98 87 78 81 74
19 19 20 25 29 27 29 27 25 25 47 100 100 99 99 98 99 99 99 100 100 93 100 98 98 99 100 100 100 100 100 99 100 97 91 84 79 71
18 20 20 25 31 29 30 30 32 31 41 40 50 73 98 98 99 99 98 98 98 98 100 99 98 98 99 99 100 100 100 100 100 100 98 91 85 36
25 29 26 35 33 33 88 99 83 56 56 57 48 47 49 73 86 92 93 98 98 98 99 100 99 100 100 100 100 100 100 100 100 99 100 88 69 18
31 44 72 42 28 31 51 56 63 59 52 40 38 43 78 94 99 98 99 100 100 98 98 99 100 100 100 98 100 100 100 100 100 99 100 89 18 16
29 28 25 20 23 29 33 43 74 93 69 56 66 90 97 98 95 100 100 100 100 99 99 100 99 100 100 100 100 100 100 99 100 99 100 44 17 20
24 24 25 26 28 32 36 38 41 62 74 92 100 98 99 99 100 93 96 98 100 99 100 100 99 99 100 99 99 99 98 98 99 99 79 19 30 23
37 32 31 34 34 34 36 41 49 61 84 100 100 100 91 98 99 100 92 98 99 99 100 100 99 99 99 99 99 98 98 97 98 94 25 24 30 20
31 32 38 43 46 48 50 56 70 92 100 100 100 99 88 89 95 100 97 96 99 99 100 99 99 100 99 98 98 98 97 97 97 78 33 35 32 26
31 35 41 46 50 57 72 81 86 86 99 100 100 100 100 89 90 98 98 97 98 98 96 97 98 98 98 99 100 98 97 96 62 56 36 37 32 30
42 46 47 53 56 64 71 75 83 93 100 100 100 100 100 100 94 96 98 98 99 99 96 97 98 98 98 98 98 98 97 58 46 40 42 39 31 29
51 56 65 70 72 93 80 88 98 98 100 100 100 100 100 100 96 97 97 97 96 97 97 97 97 96 97 97 97 91 60 43 41 41 44 36 31 29
60 64 68 68 82 75 75 87 83 81 92 100 100 100 100 100 99 99 99 98 98 100 99 98 98 97 97 97 97 91 58 45 44 40 35 34 32 29
60 63 67 66 66 73 79 84 87 86 92 100 99 100 100 100 100 100 100 97 97 100 100 97 98 98 97 98 97 73 45 42 41 35 34 35 35 35
64 67 68 70 76 79 84 86 87 88 92 97 98 99 100 100 100 100 100 98 97 99 99 98 100 97 99 97 97 62 47 51 71 53 44 47 48 49
72 72 69 68 76 80 77 76 86 91 95 97 100 98 99 97 100 100 99 98 99 100 97 96 96 98 97 98 97 65 49 90 96 71 56 57 53 54